<?xml version="1.0" encoding="UTF-8" standalone="yes"?>
<gpx
 xmlns="http://www.topografix.com/GPX/1/1"
 creator="OziExplorer Version 3956f - http://www.oziexplorer.com"
 version="1.1"
 xmlns:xsi="http://www.w3.org/2001/XMLSchema-instance"
 xsi:schemaLocation="http://www.topografix.com/GPX/1/1 http://www.topografix.com/GPX/1/1/gpx.xsd">
<metadata>
 <time>2024-04-03T10:56:29Z</time>
 <bounds minlat="32.509130" minlon="35.326510" maxlat="32.549560" maxlon="35.415390"/>
</metadata>
<wpt lat="32.5442400" lon="35.3496400">
 <time>2024-04-03T12:52:05.950Z</time>
 <name>1-Start/Finish</name>
 <sym>Bike Trail</sym>
</wpt>
<wpt lat="32.5353100" lon="35.3754320">
 <time>2024-04-03T12:52:05.974Z</time>
 <name>2-Tatspit1</name>
 <sym>Flag, Red</sym>
</wpt>
<wpt lat="32.5101440" lon="35.4083690">
 <time>2024-04-03T12:52:05.975Z</time>
 <name>3-Tatspit2</name>
 <sym>Flag, Red</sym>
</wpt>
<trk>
 <name>Gilboa_New2,33km.,900m</name>
 <desc>Gilboa_New2,33km.,900m</desc>
<trkseg>
<trkpt lat="32.5442400" lon="35.3496400">
<ele>0.000000</ele>
<time>1970-01-01T00:00:01.000Z</time>
</trkpt>
<trkpt lat="32.5443600" lon="35.3491900">
<ele>0.000000</ele>
<time>1970-01-01T00:00:01.000Z</time>
</trkpt>
<trkpt lat="32.5445800" lon="35.3487800">
<ele>0.000000</ele>
<time>1970-01-01T00:00:01.000Z</time>
</trkpt>
<trkpt lat="32.5448900" lon="35.3485300">
<ele>0.000000</ele>
<time>1970-01-01T00:00:01.000Z</time>
</trkpt>
<trkpt lat="32.5451000" lon="35.3482400">
<ele>0.000000</ele>
<time>1970-01-01T00:00:01.000Z</time>
</trkpt>
<trkpt lat="32.5453200" lon="35.3480200">
<ele>0.000000</ele>
<time>1970-01-01T00:00:01.000Z</time>
</trkpt>
<trkpt lat="32.5455600" lon="35.3478500">
<ele>0.000000</ele>
<time>1970-01-01T00:00:01.000Z</time>
</trkpt>
<trkpt lat="32.5456000" lon="35.3477800">
<ele>0.000000</ele>
<time>1970-01-01T00:00:01.000Z</time>
</trkpt>
<trkpt lat="32.5456200" lon="35.3479300">
<ele>0.000000</ele>
<time>1970-01-01T00:00:01.000Z</time>
</trkpt>
<trkpt lat="32.5457000" lon="35.3479300">
<ele>0.000000</ele>
<time>1970-01-01T00:00:01.000Z</time>
</trkpt>
<trkpt lat="32.5462200" lon="35.3476000">
<ele>0.000000</ele>
<time>1970-01-01T00:00:01.000Z</time>
</trkpt>
<trkpt lat="32.5469000" lon="35.3470500">
<ele>0.000000</ele>
<time>1970-01-01T00:00:01.000Z</time>
</trkpt>
<trkpt lat="32.5470600" lon="35.3468500">
<ele>0.000000</ele>
<time>1970-01-01T00:00:01.000Z</time>
</trkpt>
<trkpt lat="32.5474300" lon="35.3465200">
<ele>0.000000</ele>
<time>1970-01-01T00:00:01.000Z</time>
</trkpt>
<trkpt lat="32.5477800" lon="35.3462800">
<ele>0.000000</ele>
<time>1970-01-01T00:00:01.000Z</time>
</trkpt>
<trkpt lat="32.5479800" lon="35.3462000">
<ele>0.000000</ele>
<time>1970-01-01T00:00:01.000Z</time>
</trkpt>
<trkpt lat="32.5482000" lon="35.3461600">
<ele>0.000000</ele>
<time>1970-01-01T00:00:01.000Z</time>
</trkpt>
<trkpt lat="32.5486100" lon="35.3462400">
<ele>0.000000</ele>
<time>1970-01-01T00:00:01.000Z</time>
</trkpt>
<trkpt lat="32.5487800" lon="35.3463700">
<ele>0.000000</ele>
<time>1970-01-01T00:00:01.000Z</time>
</trkpt>
<trkpt lat="32.5488700" lon="35.3465100">
<ele>0.000000</ele>
<time>1970-01-01T00:00:01.000Z</time>
</trkpt>
<trkpt lat="32.5490100" lon="35.3466400">
<ele>0.000000</ele>
<time>1970-01-01T00:00:01.000Z</time>
</trkpt>
<trkpt lat="32.5492300" lon="35.3467800">
<ele>0.000000</ele>
<time>1970-01-01T00:00:01.000Z</time>
</trkpt>
<trkpt lat="32.5493400" lon="35.3469500">
<ele>0.000000</ele>
<time>1970-01-01T00:00:01.000Z</time>
</trkpt>
<trkpt lat="32.5494100" lon="35.3471000">
<ele>0.000000</ele>
<time>1970-01-01T00:00:01.000Z</time>
</trkpt>
<trkpt lat="32.5494300" lon="35.3475700">
<ele>0.000000</ele>
<time>1970-01-01T00:00:01.000Z</time>
</trkpt>
<trkpt lat="32.5495500" lon="35.3479800">
<ele>0.000000</ele>
<time>1970-01-01T00:00:01.000Z</time>
</trkpt>
<trkpt lat="32.5495600" lon="35.3482700">
<ele>0.000000</ele>
<time>1970-01-01T00:00:01.000Z</time>
</trkpt>
<trkpt lat="32.5494000" lon="35.3489300">
<ele>0.000000</ele>
<time>1970-01-01T00:00:01.000Z</time>
</trkpt>
<trkpt lat="32.5490500" lon="35.3499200">
<ele>0.000000</ele>
<time>1970-01-01T00:00:01.000Z</time>
</trkpt>
<trkpt lat="32.5487400" lon="35.3503900">
<ele>0.000000</ele>
<time>1970-01-01T00:00:01.000Z</time>
</trkpt>
<trkpt lat="32.5481800" lon="35.3514300">
<ele>0.000000</ele>
<time>1970-01-01T00:00:01.000Z</time>
</trkpt>
<trkpt lat="32.5478300" lon="35.3519800">
<ele>0.000000</ele>
<time>1970-01-01T00:00:01.000Z</time>
</trkpt>
<trkpt lat="32.5477500" lon="35.3520400">
<ele>0.000000</ele>
<time>1970-01-01T00:00:01.000Z</time>
</trkpt>
<trkpt lat="32.5476600" lon="35.3523200">
<ele>0.000000</ele>
<time>1970-01-01T00:00:01.000Z</time>
</trkpt>
<trkpt lat="32.5473100" lon="35.3529100">
<ele>0.000000</ele>
<time>1970-01-01T00:00:01.000Z</time>
</trkpt>
<trkpt lat="32.5471700" lon="35.3533100">
<ele>0.000000</ele>
<time>1970-01-01T00:00:01.000Z</time>
</trkpt>
<trkpt lat="32.5469200" lon="35.3537800">
<ele>0.000000</ele>
<time>1970-01-01T00:00:01.000Z</time>
</trkpt>
<trkpt lat="32.5468100" lon="35.3541400">
<ele>0.000000</ele>
<time>1970-01-01T00:00:01.000Z</time>
</trkpt>
<trkpt lat="32.5467200" lon="35.3542800">
<ele>0.000000</ele>
<time>1970-01-01T00:00:01.000Z</time>
</trkpt>
<trkpt lat="32.5465100" lon="35.3545100">
<ele>0.000000</ele>
<time>1970-01-01T00:00:01.000Z</time>
</trkpt>
<trkpt lat="32.5463300" lon="35.3546500">
<ele>0.000000</ele>
<time>1970-01-01T00:00:01.000Z</time>
</trkpt>
<trkpt lat="32.5461400" lon="35.3549100">
<ele>0.000000</ele>
<time>1970-01-01T00:00:01.000Z</time>
</trkpt>
<trkpt lat="32.5458400" lon="35.3551300">
<ele>0.000000</ele>
<time>1970-01-01T00:00:01.000Z</time>
</trkpt>
<trkpt lat="32.5458000" lon="35.3551300">
<ele>0.000000</ele>
<time>1970-01-01T00:00:01.000Z</time>
</trkpt>
<trkpt lat="32.5455900" lon="35.3549600">
<ele>0.000000</ele>
<time>1970-01-01T00:00:01.000Z</time>
</trkpt>
<trkpt lat="32.5454500" lon="35.3549400">
<ele>0.000000</ele>
<time>1970-01-01T00:00:01.000Z</time>
</trkpt>
<trkpt lat="32.5452800" lon="35.3551000">
<ele>0.000000</ele>
<time>1970-01-01T00:00:01.000Z</time>
</trkpt>
<trkpt lat="32.5451700" lon="35.3552700">
<ele>0.000000</ele>
<time>1970-01-01T00:00:01.000Z</time>
</trkpt>
<trkpt lat="32.5449000" lon="35.3559200">
<ele>0.000000</ele>
<time>1970-01-01T00:00:01.000Z</time>
</trkpt>
<trkpt lat="32.5444800" lon="35.3567200">
<ele>0.000000</ele>
<time>1970-01-01T00:00:01.000Z</time>
</trkpt>
<trkpt lat="32.5441700" lon="35.3576300">
<ele>0.000000</ele>
<time>1970-01-01T00:00:01.000Z</time>
</trkpt>
<trkpt lat="32.5440300" lon="35.3581600">
<ele>0.000000</ele>
<time>1970-01-01T00:00:01.000Z</time>
</trkpt>
<trkpt lat="32.5437200" lon="35.3587500">
<ele>0.000000</ele>
<time>1970-01-01T00:00:01.000Z</time>
</trkpt>
<trkpt lat="32.5437200" lon="35.3589100">
<ele>0.000000</ele>
<time>1970-01-01T00:00:01.000Z</time>
</trkpt>
<trkpt lat="32.5437700" lon="35.3589500">
<ele>0.000000</ele>
<time>1970-01-01T00:00:01.000Z</time>
</trkpt>
<trkpt lat="32.5440100" lon="35.3588600">
<ele>0.000000</ele>
<time>1970-01-01T00:00:01.000Z</time>
</trkpt>
<trkpt lat="32.5442300" lon="35.3590300">
<ele>0.000000</ele>
<time>1970-01-01T00:00:01.000Z</time>
</trkpt>
<trkpt lat="32.5443100" lon="35.3591700">
<ele>0.000000</ele>
<time>1970-01-01T00:00:01.000Z</time>
</trkpt>
<trkpt lat="32.5439000" lon="35.3603200">
<ele>0.000000</ele>
<time>1970-01-01T00:00:01.000Z</time>
</trkpt>
<trkpt lat="32.5437900" lon="35.3604400">
<ele>0.000000</ele>
<time>1970-01-01T00:00:01.000Z</time>
</trkpt>
<trkpt lat="32.5436300" lon="35.3607800">
<ele>0.000000</ele>
<time>1970-01-01T00:00:01.000Z</time>
</trkpt>
<trkpt lat="32.5434900" lon="35.3608800">
<ele>0.000000</ele>
<time>1970-01-01T00:00:01.000Z</time>
</trkpt>
<trkpt lat="32.5433400" lon="35.3609200">
<ele>0.000000</ele>
<time>1970-01-01T00:00:01.000Z</time>
</trkpt>
<trkpt lat="32.5433100" lon="35.3614900">
<ele>0.000000</ele>
<time>1970-01-01T00:00:01.000Z</time>
</trkpt>
<trkpt lat="32.5432500" lon="35.3617100">
<ele>0.000000</ele>
<time>1970-01-01T00:00:01.000Z</time>
</trkpt>
<trkpt lat="32.5428300" lon="35.3622600">
<ele>0.000000</ele>
<time>1970-01-01T00:00:01.000Z</time>
</trkpt>
<trkpt lat="32.5422800" lon="35.3626700">
<ele>0.000000</ele>
<time>1970-01-01T00:00:01.000Z</time>
</trkpt>
<trkpt lat="32.5421000" lon="35.3629600">
<ele>0.000000</ele>
<time>1970-01-01T00:00:01.000Z</time>
</trkpt>
<trkpt lat="32.5418300" lon="35.3629500">
<ele>0.000000</ele>
<time>1970-01-01T00:00:01.000Z</time>
</trkpt>
<trkpt lat="32.5418300" lon="35.3629200">
<ele>0.000000</ele>
<time>1970-01-01T00:00:01.000Z</time>
</trkpt>
<trkpt lat="32.5410800" lon="35.3629200">
<ele>0.000000</ele>
<time>1970-01-01T00:00:01.000Z</time>
</trkpt>
<trkpt lat="32.5409300" lon="35.3629000">
<ele>0.000000</ele>
<time>1970-01-01T00:00:01.000Z</time>
</trkpt>
<trkpt lat="32.5405800" lon="35.3626900">
<ele>0.000000</ele>
<time>1970-01-01T00:00:01.000Z</time>
</trkpt>
<trkpt lat="32.5402300" lon="35.3625300">
<ele>0.000000</ele>
<time>1970-01-01T00:00:01.000Z</time>
</trkpt>
<trkpt lat="32.5396900" lon="35.3624600">
<ele>0.000000</ele>
<time>1970-01-01T00:00:01.000Z</time>
</trkpt>
<trkpt lat="32.5394000" lon="35.3624600">
<ele>0.000000</ele>
<time>1970-01-01T00:00:01.000Z</time>
</trkpt>
<trkpt lat="32.5381600" lon="35.3619600">
<ele>0.000000</ele>
<time>1970-01-01T00:00:01.000Z</time>
</trkpt>
<trkpt lat="32.5378900" lon="35.3619200">
<ele>0.000000</ele>
<time>1970-01-01T00:00:01.000Z</time>
</trkpt>
<trkpt lat="32.5374600" lon="35.3619600">
<ele>0.000000</ele>
<time>1970-01-01T00:00:01.000Z</time>
</trkpt>
<trkpt lat="32.5372600" lon="35.3620600">
<ele>0.000000</ele>
<time>1970-01-01T00:00:01.000Z</time>
</trkpt>
<trkpt lat="32.5371500" lon="35.3621900">
<ele>0.000000</ele>
<time>1970-01-01T00:00:01.000Z</time>
</trkpt>
<trkpt lat="32.5370200" lon="35.3626500">
<ele>0.000000</ele>
<time>1970-01-01T00:00:01.000Z</time>
</trkpt>
<trkpt lat="32.5367900" lon="35.3630000">
<ele>0.000000</ele>
<time>1970-01-01T00:00:01.000Z</time>
</trkpt>
<trkpt lat="32.5367200" lon="35.3633600">
<ele>0.000000</ele>
<time>1970-01-01T00:00:01.000Z</time>
</trkpt>
<trkpt lat="32.5370400" lon="35.3631300">
<ele>0.000000</ele>
<time>1970-01-01T00:00:01.000Z</time>
</trkpt>
<trkpt lat="32.5373100" lon="35.3630500">
<ele>0.000000</ele>
<time>1970-01-01T00:00:01.000Z</time>
</trkpt>
<trkpt lat="32.5379300" lon="35.3631300">
<ele>0.000000</ele>
<time>1970-01-01T00:00:01.000Z</time>
</trkpt>
<trkpt lat="32.5380800" lon="35.3632400">
<ele>0.000000</ele>
<time>1970-01-01T00:00:01.000Z</time>
</trkpt>
<trkpt lat="32.5380800" lon="35.3634700">
<ele>0.000000</ele>
<time>1970-01-01T00:00:01.000Z</time>
</trkpt>
<trkpt lat="32.5378200" lon="35.3637900">
<ele>0.000000</ele>
<time>1970-01-01T00:00:01.000Z</time>
</trkpt>
<trkpt lat="32.5374600" lon="35.3640300">
<ele>0.000000</ele>
<time>1970-01-01T00:00:01.000Z</time>
</trkpt>
<trkpt lat="32.5373300" lon="35.3642000">
<ele>0.000000</ele>
<time>1970-01-01T00:00:01.000Z</time>
</trkpt>
<trkpt lat="32.5372600" lon="35.3645700">
<ele>0.000000</ele>
<time>1970-01-01T00:00:01.000Z</time>
</trkpt>
<trkpt lat="32.5372700" lon="35.3648100">
<ele>0.000000</ele>
<time>1970-01-01T00:00:01.000Z</time>
</trkpt>
<trkpt lat="32.5373200" lon="35.3650000">
<ele>0.000000</ele>
<time>1970-01-01T00:00:01.000Z</time>
</trkpt>
<trkpt lat="32.5376300" lon="35.3656300">
<ele>0.000000</ele>
<time>1970-01-01T00:00:01.000Z</time>
</trkpt>
<trkpt lat="32.5377900" lon="35.3658400">
<ele>0.000000</ele>
<time>1970-01-01T00:00:01.000Z</time>
</trkpt>
<trkpt lat="32.5378800" lon="35.3658800">
<ele>0.000000</ele>
<time>1970-01-01T00:00:01.000Z</time>
</trkpt>
<trkpt lat="32.5382400" lon="35.3658600">
<ele>0.000000</ele>
<time>1970-01-01T00:00:01.000Z</time>
</trkpt>
<trkpt lat="32.5386800" lon="35.3659600">
<ele>0.000000</ele>
<time>1970-01-01T00:00:01.000Z</time>
</trkpt>
<trkpt lat="32.5388000" lon="35.3660500">
<ele>0.000000</ele>
<time>1970-01-01T00:00:01.000Z</time>
</trkpt>
<trkpt lat="32.5388600" lon="35.3662200">
<ele>0.000000</ele>
<time>1970-01-01T00:00:01.000Z</time>
</trkpt>
<trkpt lat="32.5389500" lon="35.3662600">
<ele>0.000000</ele>
<time>1970-01-01T00:00:01.000Z</time>
</trkpt>
<trkpt lat="32.5394200" lon="35.3663300">
<ele>0.000000</ele>
<time>1970-01-01T00:00:01.000Z</time>
</trkpt>
<trkpt lat="32.5399800" lon="35.3665900">
<ele>0.000000</ele>
<time>1970-01-01T00:00:01.000Z</time>
</trkpt>
<trkpt lat="32.5403300" lon="35.3666300">
<ele>0.000000</ele>
<time>1970-01-01T00:00:01.000Z</time>
</trkpt>
<trkpt lat="32.5405800" lon="35.3666200">
<ele>0.000000</ele>
<time>1970-01-01T00:00:01.000Z</time>
</trkpt>
<trkpt lat="32.5408600" lon="35.3664000">
<ele>0.000000</ele>
<time>1970-01-01T00:00:01.000Z</time>
</trkpt>
<trkpt lat="32.5413900" lon="35.3662300">
<ele>0.000000</ele>
<time>1970-01-01T00:00:01.000Z</time>
</trkpt>
<trkpt lat="32.5421300" lon="35.3662100">
<ele>0.000000</ele>
<time>1970-01-01T00:00:01.000Z</time>
</trkpt>
<trkpt lat="32.5422500" lon="35.3663000">
<ele>0.000000</ele>
<time>1970-01-01T00:00:01.000Z</time>
</trkpt>
<trkpt lat="32.5424200" lon="35.3667400">
<ele>0.000000</ele>
<time>1970-01-01T00:00:01.000Z</time>
</trkpt>
<trkpt lat="32.5424200" lon="35.3670000">
<ele>0.000000</ele>
<time>1970-01-01T00:00:01.000Z</time>
</trkpt>
<trkpt lat="32.5423300" lon="35.3672100">
<ele>0.000000</ele>
<time>1970-01-01T00:00:01.000Z</time>
</trkpt>
<trkpt lat="32.5421600" lon="35.3674300">
<ele>0.000000</ele>
<time>1970-01-01T00:00:01.000Z</time>
</trkpt>
<trkpt lat="32.5420500" lon="35.3676500">
<ele>0.000000</ele>
<time>1970-01-01T00:00:01.000Z</time>
</trkpt>
<trkpt lat="32.5419300" lon="35.3677500">
<ele>0.000000</ele>
<time>1970-01-01T00:00:01.000Z</time>
</trkpt>
<trkpt lat="32.5418100" lon="35.3679200">
<ele>0.000000</ele>
<time>1970-01-01T00:00:01.000Z</time>
</trkpt>
<trkpt lat="32.5415200" lon="35.3680900">
<ele>0.000000</ele>
<time>1970-01-01T00:00:01.000Z</time>
</trkpt>
<trkpt lat="32.5413500" lon="35.3680900">
<ele>0.000000</ele>
<time>1970-01-01T00:00:01.000Z</time>
</trkpt>
<trkpt lat="32.5412400" lon="35.3680200">
<ele>0.000000</ele>
<time>1970-01-01T00:00:01.000Z</time>
</trkpt>
<trkpt lat="32.5410400" lon="35.3674900">
<ele>0.000000</ele>
<time>1970-01-01T00:00:01.000Z</time>
</trkpt>
<trkpt lat="32.5409400" lon="35.3673300">
<ele>0.000000</ele>
<time>1970-01-01T00:00:01.000Z</time>
</trkpt>
<trkpt lat="32.5408900" lon="35.3673200">
<ele>0.000000</ele>
<time>1970-01-01T00:00:01.000Z</time>
</trkpt>
<trkpt lat="32.5401000" lon="35.3675600">
<ele>0.000000</ele>
<time>1970-01-01T00:00:01.000Z</time>
</trkpt>
<trkpt lat="32.5397500" lon="35.3675300">
<ele>0.000000</ele>
<time>1970-01-01T00:00:01.000Z</time>
</trkpt>
<trkpt lat="32.5394100" lon="35.3676300">
<ele>0.000000</ele>
<time>1970-01-01T00:00:01.000Z</time>
</trkpt>
<trkpt lat="32.5393100" lon="35.3677400">
<ele>0.000000</ele>
<time>1970-01-01T00:00:01.000Z</time>
</trkpt>
<trkpt lat="32.5392900" lon="35.3679000">
<ele>0.000000</ele>
<time>1970-01-01T00:00:01.000Z</time>
</trkpt>
<trkpt lat="32.5393800" lon="35.3684900">
<ele>0.000000</ele>
<time>1970-01-01T00:00:01.000Z</time>
</trkpt>
<trkpt lat="32.5393500" lon="35.3694600">
<ele>0.000000</ele>
<time>1970-01-01T00:00:01.000Z</time>
</trkpt>
<trkpt lat="32.5392296" lon="35.3707076">
<ele>0.000000</ele>
<time>1970-01-01T00:00:01.000Z</time>
</trkpt>
<trkpt lat="32.5385500" lon="35.3698800">
<ele>0.000000</ele>
<time>1970-01-01T00:00:01.000Z</time>
</trkpt>
<trkpt lat="32.5381100" lon="35.3697400">
<ele>0.000000</ele>
<time>1970-01-01T00:00:01.000Z</time>
</trkpt>
<trkpt lat="32.5378200" lon="35.3697100">
<ele>0.000000</ele>
<time>1970-01-01T00:00:01.000Z</time>
</trkpt>
<trkpt lat="32.5367700" lon="35.3697200">
<ele>0.000000</ele>
<time>1970-01-01T00:00:01.000Z</time>
</trkpt>
<trkpt lat="32.5361200" lon="35.3698000">
<ele>0.000000</ele>
<time>1970-01-01T00:00:01.000Z</time>
</trkpt>
<trkpt lat="32.5355200" lon="35.3699500">
<ele>0.000000</ele>
<time>1970-01-01T00:00:01.000Z</time>
</trkpt>
<trkpt lat="32.5350000" lon="35.3701700">
<ele>0.000000</ele>
<time>1970-01-01T00:00:01.000Z</time>
</trkpt>
<trkpt lat="32.5338900" lon="35.3705000">
<ele>0.000000</ele>
<time>1970-01-01T00:00:01.000Z</time>
</trkpt>
<trkpt lat="32.5336400" lon="35.3705100">
<ele>0.000000</ele>
<time>1970-01-01T00:00:01.000Z</time>
</trkpt>
<trkpt lat="32.5333100" lon="35.3707600">
<ele>0.000000</ele>
<time>1970-01-01T00:00:01.000Z</time>
</trkpt>
<trkpt lat="32.5330200" lon="35.3707800">
<ele>0.000000</ele>
<time>1970-01-01T00:00:01.000Z</time>
</trkpt>
<trkpt lat="32.5325300" lon="35.3707200">
<ele>0.000000</ele>
<time>1970-01-01T00:00:01.000Z</time>
</trkpt>
<trkpt lat="32.5321900" lon="35.3707600">
<ele>0.000000</ele>
<time>1970-01-01T00:00:01.000Z</time>
</trkpt>
<trkpt lat="32.5319800" lon="35.3708900">
<ele>0.000000</ele>
<time>1970-01-01T00:00:01.000Z</time>
</trkpt>
<trkpt lat="32.5318900" lon="35.3710200">
<ele>0.000000</ele>
<time>1970-01-01T00:00:01.000Z</time>
</trkpt>
<trkpt lat="32.5318000" lon="35.3712500">
<ele>0.000000</ele>
<time>1970-01-01T00:00:01.000Z</time>
</trkpt>
<trkpt lat="32.5317200" lon="35.3717800">
<ele>0.000000</ele>
<time>1970-01-01T00:00:01.000Z</time>
</trkpt>
<trkpt lat="32.5311500" lon="35.3727800">
<ele>0.000000</ele>
<time>1970-01-01T00:00:01.000Z</time>
</trkpt>
<trkpt lat="32.5310100" lon="35.3728700">
<ele>0.000000</ele>
<time>1970-01-01T00:00:01.000Z</time>
</trkpt>
<trkpt lat="32.5308500" lon="35.3728800">
<ele>0.000000</ele>
<time>1970-01-01T00:00:01.000Z</time>
</trkpt>
<trkpt lat="32.5307700" lon="35.3728500">
<ele>0.000000</ele>
<time>1970-01-01T00:00:01.000Z</time>
</trkpt>
<trkpt lat="32.5304900" lon="35.3725300">
<ele>0.000000</ele>
<time>1970-01-01T00:00:01.000Z</time>
</trkpt>
<trkpt lat="32.5303400" lon="35.3726600">
<ele>0.000000</ele>
<time>1970-01-01T00:00:01.000Z</time>
</trkpt>
<trkpt lat="32.5299600" lon="35.3739000">
<ele>0.000000</ele>
<time>1970-01-01T00:00:01.000Z</time>
</trkpt>
<trkpt lat="32.5300600" lon="35.3746200">
<ele>0.000000</ele>
<time>1970-01-01T00:00:01.000Z</time>
</trkpt>
<trkpt lat="32.5300700" lon="35.3754800">
<ele>0.000000</ele>
<time>1970-01-01T00:00:01.000Z</time>
</trkpt>
<trkpt lat="32.5301500" lon="35.3758400">
<ele>0.000000</ele>
<time>1970-01-01T00:00:01.000Z</time>
</trkpt>
<trkpt lat="32.5303000" lon="35.3759200">
<ele>0.000000</ele>
<time>1970-01-01T00:00:01.000Z</time>
</trkpt>
<trkpt lat="32.5304500" lon="35.3759300">
<ele>0.000000</ele>
<time>1970-01-01T00:00:01.000Z</time>
</trkpt>
<trkpt lat="32.5307800" lon="35.3758800">
<ele>0.000000</ele>
<time>1970-01-01T00:00:01.000Z</time>
</trkpt>
<trkpt lat="32.5318000" lon="35.3753200">
<ele>0.000000</ele>
<time>1970-01-01T00:00:01.000Z</time>
</trkpt>
<trkpt lat="32.5321500" lon="35.3753500">
<ele>0.000000</ele>
<time>1970-01-01T00:00:01.000Z</time>
</trkpt>
<trkpt lat="32.5324700" lon="35.3757000">
<ele>0.000000</ele>
<time>1970-01-01T00:00:01.000Z</time>
</trkpt>
<trkpt lat="32.5326800" lon="35.3758000">
<ele>0.000000</ele>
<time>1970-01-01T00:00:01.000Z</time>
</trkpt>
<trkpt lat="32.5329400" lon="35.3758200">
<ele>0.000000</ele>
<time>1970-01-01T00:00:01.000Z</time>
</trkpt>
<trkpt lat="32.5333700" lon="35.3757000">
<ele>0.000000</ele>
<time>1970-01-01T00:00:01.000Z</time>
</trkpt>
<trkpt lat="32.5342300" lon="35.3749800">
<ele>0.000000</ele>
<time>1970-01-01T00:00:01.000Z</time>
</trkpt>
<trkpt lat="32.5347500" lon="35.3746700">
<ele>0.000000</ele>
<time>1970-01-01T00:00:01.000Z</time>
</trkpt>
<trkpt lat="32.5356700" lon="35.3742700">
<ele>0.000000</ele>
<time>1970-01-01T00:00:01.000Z</time>
</trkpt>
<trkpt lat="32.5358600" lon="35.3742900">
<ele>0.000000</ele>
<time>1970-01-01T00:00:01.000Z</time>
</trkpt>
<trkpt lat="32.5359300" lon="35.3744100">
<ele>0.000000</ele>
<time>1970-01-01T00:00:01.000Z</time>
</trkpt>
<trkpt lat="32.5359300" lon="35.3746000">
<ele>0.000000</ele>
<time>1970-01-01T00:00:01.000Z</time>
</trkpt>
<trkpt lat="32.5358700" lon="35.3749100">
<ele>0.000000</ele>
<time>1970-01-01T00:00:01.000Z</time>
</trkpt>
<trkpt lat="32.5358300" lon="35.3749500">
<ele>0.000000</ele>
<time>1970-01-01T00:00:01.000Z</time>
</trkpt>
<trkpt lat="32.5356600" lon="35.3749700">
<ele>0.000000</ele>
<time>1970-01-01T00:00:01.000Z</time>
</trkpt>
<trkpt lat="32.5355100" lon="35.3750400">
<ele>0.000000</ele>
<time>1970-01-01T00:00:01.000Z</time>
</trkpt>
<trkpt lat="32.5353600" lon="35.3754300">
<ele>0.000000</ele>
<time>1970-01-01T00:00:01.000Z</time>
</trkpt>
<trkpt lat="32.5352100" lon="35.3754800">
<ele>0.000000</ele>
<time>1970-01-01T00:00:01.000Z</time>
</trkpt>
<trkpt lat="32.5353600" lon="35.3754300">
<ele>0.000000</ele>
<time>1970-01-01T00:00:01.000Z</time>
</trkpt>
<trkpt lat="32.5353900" lon="35.3753900">
<ele>0.000000</ele>
<time>1970-01-01T00:00:01.000Z</time>
</trkpt>
<trkpt lat="32.5354100" lon="35.3752500">
<ele>0.000000</ele>
<time>1970-01-01T00:00:01.000Z</time>
</trkpt>
<trkpt lat="32.5355100" lon="35.3750400">
<ele>0.000000</ele>
<time>1970-01-01T00:00:01.000Z</time>
</trkpt>
<trkpt lat="32.5355900" lon="35.3749900">
<ele>0.000000</ele>
<time>1970-01-01T00:00:01.000Z</time>
</trkpt>
<trkpt lat="32.5358200" lon="35.3749400">
<ele>0.000000</ele>
<time>1970-01-01T00:00:01.000Z</time>
</trkpt>
<trkpt lat="32.5358400" lon="35.3749000">
<ele>0.000000</ele>
<time>1970-01-01T00:00:01.000Z</time>
</trkpt>
<trkpt lat="32.5358700" lon="35.3747400">
<ele>0.000000</ele>
<time>1970-01-01T00:00:01.000Z</time>
</trkpt>
<trkpt lat="32.5357200" lon="35.3746000">
<ele>0.000000</ele>
<time>1970-01-01T00:00:01.000Z</time>
</trkpt>
<trkpt lat="32.5354800" lon="35.3745900">
<ele>0.000000</ele>
<time>1970-01-01T00:00:01.000Z</time>
</trkpt>
<trkpt lat="32.5342700" lon="35.3754100">
<ele>0.000000</ele>
<time>1970-01-01T00:00:01.000Z</time>
</trkpt>
<trkpt lat="32.5343900" lon="35.3749100">
<ele>0.000000</ele>
<time>1970-01-01T00:00:01.000Z</time>
</trkpt>
<trkpt lat="32.5333700" lon="35.3757000">
<ele>0.000000</ele>
<time>1970-01-01T00:00:01.000Z</time>
</trkpt>
<trkpt lat="32.5329300" lon="35.3758200">
<ele>0.000000</ele>
<time>1970-01-01T00:00:01.000Z</time>
</trkpt>
<trkpt lat="32.5326700" lon="35.3758000">
<ele>0.000000</ele>
<time>1970-01-01T00:00:01.000Z</time>
</trkpt>
<trkpt lat="32.5324800" lon="35.3757200">
<ele>0.000000</ele>
<time>1970-01-01T00:00:01.000Z</time>
</trkpt>
<trkpt lat="32.5321500" lon="35.3753500">
<ele>0.000000</ele>
<time>1970-01-01T00:00:01.000Z</time>
</trkpt>
<trkpt lat="32.5318000" lon="35.3753200">
<ele>0.000000</ele>
<time>1970-01-01T00:00:01.000Z</time>
</trkpt>
<trkpt lat="32.5307800" lon="35.3758800">
<ele>0.000000</ele>
<time>1970-01-01T00:00:01.000Z</time>
</trkpt>
<trkpt lat="32.5306200" lon="35.3759200">
<ele>0.000000</ele>
<time>1970-01-01T00:00:01.000Z</time>
</trkpt>
<trkpt lat="32.5303000" lon="35.3759200">
<ele>0.000000</ele>
<time>1970-01-01T00:00:01.000Z</time>
</trkpt>
<trkpt lat="32.5301500" lon="35.3758400">
<ele>0.000000</ele>
<time>1970-01-01T00:00:01.000Z</time>
</trkpt>
<trkpt lat="32.5300500" lon="35.3754800">
<ele>0.000000</ele>
<time>1970-01-01T00:00:01.000Z</time>
</trkpt>
<trkpt lat="32.5300300" lon="35.3746100">
<ele>0.000000</ele>
<time>1970-01-01T00:00:01.000Z</time>
</trkpt>
<trkpt lat="32.5298800" lon="35.3739600">
<ele>0.000000</ele>
<time>1970-01-01T00:00:01.000Z</time>
</trkpt>
<trkpt lat="32.5297400" lon="35.3740600">
<ele>0.000000</ele>
<time>1970-01-01T00:00:01.000Z</time>
</trkpt>
<trkpt lat="32.5296600" lon="35.3742000">
<ele>0.000000</ele>
<time>1970-01-01T00:00:01.000Z</time>
</trkpt>
<trkpt lat="32.5294800" lon="35.3743700">
<ele>0.000000</ele>
<time>1970-01-01T00:00:01.000Z</time>
</trkpt>
<trkpt lat="32.5290000" lon="35.3747400">
<ele>0.000000</ele>
<time>1970-01-01T00:00:01.000Z</time>
</trkpt>
<trkpt lat="32.5288400" lon="35.3748100">
<ele>0.000000</ele>
<time>1970-01-01T00:00:01.000Z</time>
</trkpt>
<trkpt lat="32.5283800" lon="35.3748900">
<ele>0.000000</ele>
<time>1970-01-01T00:00:01.000Z</time>
</trkpt>
<trkpt lat="32.5277400" lon="35.3750800">
<ele>0.000000</ele>
<time>1970-01-01T00:00:01.000Z</time>
</trkpt>
<trkpt lat="32.5272300" lon="35.3753400">
<ele>0.000000</ele>
<time>1970-01-01T00:00:01.000Z</time>
</trkpt>
<trkpt lat="32.5270200" lon="35.3755200">
<ele>0.000000</ele>
<time>1970-01-01T00:00:01.000Z</time>
</trkpt>
<trkpt lat="32.5269400" lon="35.3756900">
<ele>0.000000</ele>
<time>1970-01-01T00:00:01.000Z</time>
</trkpt>
<trkpt lat="32.5266400" lon="35.3777200">
<ele>0.000000</ele>
<time>1970-01-01T00:00:01.000Z</time>
</trkpt>
<trkpt lat="32.5261100" lon="35.3787900">
<ele>0.000000</ele>
<time>1970-01-01T00:00:01.000Z</time>
</trkpt>
<trkpt lat="32.5259600" lon="35.3790200">
<ele>0.000000</ele>
<time>1970-01-01T00:00:01.000Z</time>
</trkpt>
<trkpt lat="32.5258400" lon="35.3791100">
<ele>0.000000</ele>
<time>1970-01-01T00:00:01.000Z</time>
</trkpt>
<trkpt lat="32.5255700" lon="35.3795300">
<ele>0.000000</ele>
<time>1970-01-01T00:00:01.000Z</time>
</trkpt>
<trkpt lat="32.5252200" lon="35.3802900">
<ele>0.000000</ele>
<time>1970-01-01T00:00:01.000Z</time>
</trkpt>
<trkpt lat="32.5250100" lon="35.3816100">
<ele>0.000000</ele>
<time>1970-01-01T00:00:01.000Z</time>
</trkpt>
<trkpt lat="32.5246800" lon="35.3821000">
<ele>0.000000</ele>
<time>1970-01-01T00:00:01.000Z</time>
</trkpt>
<trkpt lat="32.5244500" lon="35.3828200">
<ele>0.000000</ele>
<time>1970-01-01T00:00:01.000Z</time>
</trkpt>
<trkpt lat="32.5244000" lon="35.3830900">
<ele>0.000000</ele>
<time>1970-01-01T00:00:01.000Z</time>
</trkpt>
<trkpt lat="32.5238800" lon="35.3840500">
<ele>0.000000</ele>
<time>1970-01-01T00:00:01.000Z</time>
</trkpt>
<trkpt lat="32.5237500" lon="35.3843600">
<ele>0.000000</ele>
<time>1970-01-01T00:00:01.000Z</time>
</trkpt>
<trkpt lat="32.5236900" lon="35.3847200">
<ele>0.000000</ele>
<time>1970-01-01T00:00:01.000Z</time>
</trkpt>
<trkpt lat="32.5236900" lon="35.3850000">
<ele>0.000000</ele>
<time>1970-01-01T00:00:01.000Z</time>
</trkpt>
<trkpt lat="32.5246400" lon="35.3861800">
<ele>0.000000</ele>
<time>1970-01-01T00:00:01.000Z</time>
</trkpt>
<trkpt lat="32.5253200" lon="35.3868800">
<ele>0.000000</ele>
<time>1970-01-01T00:00:01.000Z</time>
</trkpt>
<trkpt lat="32.5256600" lon="35.3871600">
<ele>0.000000</ele>
<time>1970-01-01T00:00:01.000Z</time>
</trkpt>
<trkpt lat="32.5258900" lon="35.3871700">
<ele>0.000000</ele>
<time>1970-01-01T00:00:01.000Z</time>
</trkpt>
<trkpt lat="32.5263200" lon="35.3872700">
<ele>0.000000</ele>
<time>1970-01-01T00:00:01.000Z</time>
</trkpt>
<trkpt lat="32.5265700" lon="35.3873700">
<ele>0.000000</ele>
<time>1970-01-01T00:00:01.000Z</time>
</trkpt>
<trkpt lat="32.5268000" lon="35.3875100">
<ele>0.000000</ele>
<time>1970-01-01T00:00:01.000Z</time>
</trkpt>
<trkpt lat="32.5268800" lon="35.3876400">
<ele>0.000000</ele>
<time>1970-01-01T00:00:01.000Z</time>
</trkpt>
<trkpt lat="32.5268900" lon="35.3877300">
<ele>0.000000</ele>
<time>1970-01-01T00:00:01.000Z</time>
</trkpt>
<trkpt lat="32.5267500" lon="35.3882800">
<ele>0.000000</ele>
<time>1970-01-01T00:00:01.000Z</time>
</trkpt>
<trkpt lat="32.5266200" lon="35.3885900">
<ele>0.000000</ele>
<time>1970-01-01T00:00:01.000Z</time>
</trkpt>
<trkpt lat="32.5262600" lon="35.3892600">
<ele>0.000000</ele>
<time>1970-01-01T00:00:01.000Z</time>
</trkpt>
<trkpt lat="32.5258200" lon="35.3902500">
<ele>0.000000</ele>
<time>1970-01-01T00:00:01.000Z</time>
</trkpt>
<trkpt lat="32.5247600" lon="35.3918600">
<ele>0.000000</ele>
<time>1970-01-01T00:00:01.000Z</time>
</trkpt>
<trkpt lat="32.5243900" lon="35.3925600">
<ele>0.000000</ele>
<time>1970-01-01T00:00:01.000Z</time>
</trkpt>
<trkpt lat="32.5241000" lon="35.3929200">
<ele>0.000000</ele>
<time>1970-01-01T00:00:01.000Z</time>
</trkpt>
<trkpt lat="32.5236600" lon="35.3946300">
<ele>0.000000</ele>
<time>1970-01-01T00:00:01.000Z</time>
</trkpt>
<trkpt lat="32.5234000" lon="35.3952300">
<ele>0.000000</ele>
<time>1970-01-01T00:00:01.000Z</time>
</trkpt>
<trkpt lat="32.5231100" lon="35.3962200">
<ele>0.000000</ele>
<time>1970-01-01T00:00:01.000Z</time>
</trkpt>
<trkpt lat="32.5230100" lon="35.3968300">
<ele>0.000000</ele>
<time>1970-01-01T00:00:01.000Z</time>
</trkpt>
<trkpt lat="32.5229400" lon="35.3981700">
<ele>0.000000</ele>
<time>1970-01-01T00:00:01.000Z</time>
</trkpt>
<trkpt lat="32.5228700" lon="35.3984500">
<ele>0.000000</ele>
<time>1970-01-01T00:00:01.000Z</time>
</trkpt>
<trkpt lat="32.5223700" lon="35.3988700">
<ele>0.000000</ele>
<time>1970-01-01T00:00:01.000Z</time>
</trkpt>
<trkpt lat="32.5221100" lon="35.3989700">
<ele>0.000000</ele>
<time>1970-01-01T00:00:01.000Z</time>
</trkpt>
<trkpt lat="32.5212600" lon="35.3989700">
<ele>0.000000</ele>
<time>1970-01-01T00:00:01.000Z</time>
</trkpt>
<trkpt lat="32.5208400" lon="35.3988800">
<ele>0.000000</ele>
<time>1970-01-01T00:00:01.000Z</time>
</trkpt>
<trkpt lat="32.5206900" lon="35.3988800">
<ele>0.000000</ele>
<time>1970-01-01T00:00:01.000Z</time>
</trkpt>
<trkpt lat="32.5197200" lon="35.3989900">
<ele>0.000000</ele>
<time>1970-01-01T00:00:01.000Z</time>
</trkpt>
<trkpt lat="32.5195100" lon="35.3991200">
<ele>0.000000</ele>
<time>1970-01-01T00:00:01.000Z</time>
</trkpt>
<trkpt lat="32.5192200" lon="35.3994800">
<ele>0.000000</ele>
<time>1970-01-01T00:00:01.000Z</time>
</trkpt>
<trkpt lat="32.5191000" lon="35.3995300">
<ele>0.000000</ele>
<time>1970-01-01T00:00:01.000Z</time>
</trkpt>
<trkpt lat="32.5189400" lon="35.3995400">
<ele>0.000000</ele>
<time>1970-01-01T00:00:01.000Z</time>
</trkpt>
<trkpt lat="32.5188100" lon="35.3996200">
<ele>0.000000</ele>
<time>1970-01-01T00:00:01.000Z</time>
</trkpt>
<trkpt lat="32.5183300" lon="35.4002700">
<ele>0.000000</ele>
<time>1970-01-01T00:00:01.000Z</time>
</trkpt>
<trkpt lat="32.5181000" lon="35.4012600">
<ele>0.000000</ele>
<time>1970-01-01T00:00:01.000Z</time>
</trkpt>
<trkpt lat="32.5177700" lon="35.4024300">
<ele>0.000000</ele>
<time>1970-01-01T00:00:01.000Z</time>
</trkpt>
<trkpt lat="32.5177500" lon="35.4028700">
<ele>0.000000</ele>
<time>1970-01-01T00:00:01.000Z</time>
</trkpt>
<trkpt lat="32.5174700" lon="35.4032300">
<ele>0.000000</ele>
<time>1970-01-01T00:00:01.000Z</time>
</trkpt>
<trkpt lat="32.5175400" lon="35.4038400">
<ele>0.000000</ele>
<time>1970-01-01T00:00:01.000Z</time>
</trkpt>
<trkpt lat="32.5174400" lon="35.4049000">
<ele>0.000000</ele>
<time>1970-01-01T00:00:01.000Z</time>
</trkpt>
<trkpt lat="32.5175300" lon="35.4052000">
<ele>0.000000</ele>
<time>1970-01-01T00:00:01.000Z</time>
</trkpt>
<trkpt lat="32.5181300" lon="35.4061700">
<ele>0.000000</ele>
<time>1970-01-01T00:00:01.000Z</time>
</trkpt>
<trkpt lat="32.5181600" lon="35.4064200">
<ele>0.000000</ele>
<time>1970-01-01T00:00:01.000Z</time>
</trkpt>
<trkpt lat="32.5181500" lon="35.4066000">
<ele>0.000000</ele>
<time>1970-01-01T00:00:01.000Z</time>
</trkpt>
<trkpt lat="32.5180300" lon="35.4069600">
<ele>0.000000</ele>
<time>1970-01-01T00:00:01.000Z</time>
</trkpt>
<trkpt lat="32.5173000" lon="35.4074700">
<ele>0.000000</ele>
<time>1970-01-01T00:00:01.000Z</time>
</trkpt>
<trkpt lat="32.5172500" lon="35.4076800">
<ele>0.000000</ele>
<time>1970-01-01T00:00:01.000Z</time>
</trkpt>
<trkpt lat="32.5172600" lon="35.4077600">
<ele>0.000000</ele>
<time>1970-01-01T00:00:01.000Z</time>
</trkpt>
<trkpt lat="32.5175100" lon="35.4081000">
<ele>0.000000</ele>
<time>1970-01-01T00:00:01.000Z</time>
</trkpt>
<trkpt lat="32.5176400" lon="35.4085300">
<ele>0.000000</ele>
<time>1970-01-01T00:00:01.000Z</time>
</trkpt>
<trkpt lat="32.5176400" lon="35.4092900">
<ele>0.000000</ele>
<time>1970-01-01T00:00:01.000Z</time>
</trkpt>
<trkpt lat="32.5172100" lon="35.4099700">
<ele>0.000000</ele>
<time>1970-01-01T00:00:01.000Z</time>
</trkpt>
<trkpt lat="32.5170800" lon="35.4105200">
<ele>0.000000</ele>
<time>1970-01-01T00:00:01.000Z</time>
</trkpt>
<trkpt lat="32.5169300" lon="35.4107500">
<ele>0.000000</ele>
<time>1970-01-01T00:00:01.000Z</time>
</trkpt>
<trkpt lat="32.5167300" lon="35.4112700">
<ele>0.000000</ele>
<time>1970-01-01T00:00:01.000Z</time>
</trkpt>
<trkpt lat="32.5163800" lon="35.4115600">
<ele>0.000000</ele>
<time>1970-01-01T00:00:01.000Z</time>
</trkpt>
<trkpt lat="32.5162800" lon="35.4119800">
<ele>0.000000</ele>
<time>1970-01-01T00:00:01.000Z</time>
</trkpt>
<trkpt lat="32.5161500" lon="35.4121800">
<ele>0.000000</ele>
<time>1970-01-01T00:00:01.000Z</time>
</trkpt>
<trkpt lat="32.5160800" lon="35.4123800">
<ele>0.000000</ele>
<time>1970-01-01T00:00:01.000Z</time>
</trkpt>
<trkpt lat="32.5159300" lon="35.4124800">
<ele>0.000000</ele>
<time>1970-01-01T00:00:01.000Z</time>
</trkpt>
<trkpt lat="32.5154800" lon="35.4125200">
<ele>0.000000</ele>
<time>1970-01-01T00:00:01.000Z</time>
</trkpt>
<trkpt lat="32.5154500" lon="35.4125600">
<ele>0.000000</ele>
<time>1970-01-01T00:00:01.000Z</time>
</trkpt>
<trkpt lat="32.5154300" lon="35.4140700">
<ele>0.000000</ele>
<time>1970-01-01T00:00:01.000Z</time>
</trkpt>
<trkpt lat="32.5153600" lon="35.4135700">
<ele>0.000000</ele>
<time>1970-01-01T00:00:01.000Z</time>
</trkpt>
<trkpt lat="32.5153100" lon="35.4134900">
<ele>0.000000</ele>
<time>1970-01-01T00:00:01.000Z</time>
</trkpt>
<trkpt lat="32.5152300" lon="35.4136000">
<ele>0.000000</ele>
<time>1970-01-01T00:00:01.000Z</time>
</trkpt>
<trkpt lat="32.5152300" lon="35.4138100">
<ele>0.000000</ele>
<time>1970-01-01T00:00:01.000Z</time>
</trkpt>
<trkpt lat="32.5150600" lon="35.4144100">
<ele>0.000000</ele>
<time>1970-01-01T00:00:01.000Z</time>
</trkpt>
<trkpt lat="32.5149200" lon="35.4146600">
<ele>0.000000</ele>
<time>1970-01-01T00:00:01.000Z</time>
</trkpt>
<trkpt lat="32.5140400" lon="35.4153900">
<ele>0.000000</ele>
<time>1970-01-01T00:00:01.000Z</time>
</trkpt>
<trkpt lat="32.5140400" lon="35.4153100">
<ele>0.000000</ele>
<time>1970-01-01T00:00:01.000Z</time>
</trkpt>
<trkpt lat="32.5146400" lon="35.4144800">
<ele>0.000000</ele>
<time>1970-01-01T00:00:01.000Z</time>
</trkpt>
<trkpt lat="32.5146800" lon="35.4142500">
<ele>0.000000</ele>
<time>1970-01-01T00:00:01.000Z</time>
</trkpt>
<trkpt lat="32.5146900" lon="35.4134600">
<ele>0.000000</ele>
<time>1970-01-01T00:00:01.000Z</time>
</trkpt>
<trkpt lat="32.5146200" lon="35.4134300">
<ele>0.000000</ele>
<time>1970-01-01T00:00:01.000Z</time>
</trkpt>
<trkpt lat="32.5145600" lon="35.4135100">
<ele>0.000000</ele>
<time>1970-01-01T00:00:01.000Z</time>
</trkpt>
<trkpt lat="32.5145300" lon="35.4138700">
<ele>0.000000</ele>
<time>1970-01-01T00:00:01.000Z</time>
</trkpt>
<trkpt lat="32.5140300" lon="35.4145300">
<ele>0.000000</ele>
<time>1970-01-01T00:00:01.000Z</time>
</trkpt>
<trkpt lat="32.5139700" lon="35.4145500">
<ele>0.000000</ele>
<time>1970-01-01T00:00:01.000Z</time>
</trkpt>
<trkpt lat="32.5141000" lon="35.4138300">
<ele>0.000000</ele>
<time>1970-01-01T00:00:01.000Z</time>
</trkpt>
<trkpt lat="32.5141200" lon="35.4127400">
<ele>0.000000</ele>
<time>1970-01-01T00:00:01.000Z</time>
</trkpt>
<trkpt lat="32.5142100" lon="35.4120800">
<ele>0.000000</ele>
<time>1970-01-01T00:00:01.000Z</time>
</trkpt>
<trkpt lat="32.5141800" lon="35.4119500">
<ele>0.000000</ele>
<time>1970-01-01T00:00:01.000Z</time>
</trkpt>
<trkpt lat="32.5140700" lon="35.4119700">
<ele>0.000000</ele>
<time>1970-01-01T00:00:01.000Z</time>
</trkpt>
<trkpt lat="32.5136700" lon="35.4132500">
<ele>0.000000</ele>
<time>1970-01-01T00:00:01.000Z</time>
</trkpt>
<trkpt lat="32.5134800" lon="35.4136900">
<ele>0.000000</ele>
<time>1970-01-01T00:00:01.000Z</time>
</trkpt>
<trkpt lat="32.5134100" lon="35.4137500">
<ele>0.000000</ele>
<time>1970-01-01T00:00:01.000Z</time>
</trkpt>
<trkpt lat="32.5133900" lon="35.4136700">
<ele>0.000000</ele>
<time>1970-01-01T00:00:01.000Z</time>
</trkpt>
<trkpt lat="32.5134500" lon="35.4134900">
<ele>0.000000</ele>
<time>1970-01-01T00:00:01.000Z</time>
</trkpt>
<trkpt lat="32.5135100" lon="35.4121300">
<ele>0.000000</ele>
<time>1970-01-01T00:00:01.000Z</time>
</trkpt>
<trkpt lat="32.5135700" lon="35.4118300">
<ele>0.000000</ele>
<time>1970-01-01T00:00:01.000Z</time>
</trkpt>
<trkpt lat="32.5135400" lon="35.4118000">
<ele>0.000000</ele>
<time>1970-01-01T00:00:01.000Z</time>
</trkpt>
<trkpt lat="32.5132900" lon="35.4124500">
<ele>0.000000</ele>
<time>1970-01-01T00:00:01.000Z</time>
</trkpt>
<trkpt lat="32.5128600" lon="35.4132700">
<ele>0.000000</ele>
<time>1970-01-01T00:00:01.000Z</time>
</trkpt>
<trkpt lat="32.5126700" lon="35.4134500">
<ele>0.000000</ele>
<time>1970-01-01T00:00:01.000Z</time>
</trkpt>
<trkpt lat="32.5126300" lon="35.4134600">
<ele>0.000000</ele>
<time>1970-01-01T00:00:01.000Z</time>
</trkpt>
<trkpt lat="32.5126200" lon="35.4134300">
<ele>0.000000</ele>
<time>1970-01-01T00:00:01.000Z</time>
</trkpt>
<trkpt lat="32.5127100" lon="35.4132400">
<ele>0.000000</ele>
<time>1970-01-01T00:00:01.000Z</time>
</trkpt>
<trkpt lat="32.5128600" lon="35.4126900">
<ele>0.000000</ele>
<time>1970-01-01T00:00:01.000Z</time>
</trkpt>
<trkpt lat="32.5128700" lon="35.4121200">
<ele>0.000000</ele>
<time>1970-01-01T00:00:01.000Z</time>
</trkpt>
<trkpt lat="32.5131200" lon="35.4111700">
<ele>0.000000</ele>
<time>1970-01-01T00:00:01.000Z</time>
</trkpt>
<trkpt lat="32.5132200" lon="35.4104100">
<ele>0.000000</ele>
<time>1970-01-01T00:00:01.000Z</time>
</trkpt>
<trkpt lat="32.5132000" lon="35.4103700">
<ele>0.000000</ele>
<time>1970-01-01T00:00:01.000Z</time>
</trkpt>
<trkpt lat="32.5131200" lon="35.4104400">
<ele>0.000000</ele>
<time>1970-01-01T00:00:01.000Z</time>
</trkpt>
<trkpt lat="32.5130200" lon="35.4107300">
<ele>0.000000</ele>
<time>1970-01-01T00:00:01.000Z</time>
</trkpt>
<trkpt lat="32.5125000" lon="35.4116100">
<ele>0.000000</ele>
<time>1970-01-01T00:00:01.000Z</time>
</trkpt>
<trkpt lat="32.5123300" lon="35.4120600">
<ele>0.000000</ele>
<time>1970-01-01T00:00:01.000Z</time>
</trkpt>
<trkpt lat="32.5123000" lon="35.4120700">
<ele>0.000000</ele>
<time>1970-01-01T00:00:01.000Z</time>
</trkpt>
<trkpt lat="32.5122800" lon="35.4118800">
<ele>0.000000</ele>
<time>1970-01-01T00:00:01.000Z</time>
</trkpt>
<trkpt lat="32.5128000" lon="35.4101300">
<ele>0.000000</ele>
<time>1970-01-01T00:00:01.000Z</time>
</trkpt>
<trkpt lat="32.5129200" lon="35.4093500">
<ele>0.000000</ele>
<time>1970-01-01T00:00:01.000Z</time>
</trkpt>
<trkpt lat="32.5130000" lon="35.4091200">
<ele>0.000000</ele>
<time>1970-01-01T00:00:01.000Z</time>
</trkpt>
<trkpt lat="32.5129300" lon="35.4090800">
<ele>0.000000</ele>
<time>1970-01-01T00:00:01.000Z</time>
</trkpt>
<trkpt lat="32.5120700" lon="35.4104800">
<ele>0.000000</ele>
<time>1970-01-01T00:00:01.000Z</time>
</trkpt>
<trkpt lat="32.5116700" lon="35.4113600">
<ele>0.000000</ele>
<time>1970-01-01T00:00:01.000Z</time>
</trkpt>
<trkpt lat="32.5116300" lon="35.4113800">
<ele>0.000000</ele>
<time>1970-01-01T00:00:01.000Z</time>
</trkpt>
<trkpt lat="32.5118500" lon="35.4105900">
<ele>0.000000</ele>
<time>1970-01-01T00:00:01.000Z</time>
</trkpt>
<trkpt lat="32.5119000" lon="35.4101300">
<ele>0.000000</ele>
<time>1970-01-01T00:00:01.000Z</time>
</trkpt>
<trkpt lat="32.5122900" lon="35.4080700">
<ele>0.000000</ele>
<time>1970-01-01T00:00:01.000Z</time>
</trkpt>
<trkpt lat="32.5122800" lon="35.4078400">
<ele>0.000000</ele>
<time>1970-01-01T00:00:01.000Z</time>
</trkpt>
<trkpt lat="32.5122100" lon="35.4075200">
<ele>0.000000</ele>
<time>1970-01-01T00:00:01.000Z</time>
</trkpt>
<trkpt lat="32.5120100" lon="35.4068600">
<ele>0.000000</ele>
<time>1970-01-01T00:00:01.000Z</time>
</trkpt>
<trkpt lat="32.5120100" lon="35.4065000">
<ele>0.000000</ele>
<time>1970-01-01T00:00:01.000Z</time>
</trkpt>
<trkpt lat="32.5119700" lon="35.4065000">
<ele>0.000000</ele>
<time>1970-01-01T00:00:01.000Z</time>
</trkpt>
<trkpt lat="32.5118800" lon="35.4068200">
<ele>0.000000</ele>
<time>1970-01-01T00:00:01.000Z</time>
</trkpt>
<trkpt lat="32.5117900" lon="35.4079400">
<ele>0.000000</ele>
<time>1970-01-01T00:00:01.000Z</time>
</trkpt>
<trkpt lat="32.5117100" lon="35.4082400">
<ele>0.000000</ele>
<time>1970-01-01T00:00:01.000Z</time>
</trkpt>
<trkpt lat="32.5114600" lon="35.4086200">
<ele>0.000000</ele>
<time>1970-01-01T00:00:01.000Z</time>
</trkpt>
<trkpt lat="32.5112000" lon="35.4085800">
<ele>0.000000</ele>
<time>1970-01-01T00:00:01.000Z</time>
</trkpt>
<trkpt lat="32.5112800" lon="35.4085900">
<ele>0.000000</ele>
<time>1970-01-01T00:00:01.000Z</time>
</trkpt>
<trkpt lat="32.5108300" lon="35.4080400">
<ele>0.000000</ele>
<time>1970-01-01T00:00:01.000Z</time>
</trkpt>
<trkpt lat="32.5107300" lon="35.4080100">
<ele>0.000000</ele>
<time>1970-01-01T00:00:01.000Z</time>
</trkpt>
<trkpt lat="32.5102300" lon="35.4084300">
<ele>0.000000</ele>
<time>1970-01-01T00:00:01.000Z</time>
</trkpt>
<trkpt lat="32.5102300" lon="35.4083300">
<ele>0.000000</ele>
<time>1970-01-01T00:00:01.000Z</time>
</trkpt>
<trkpt lat="32.5102000" lon="35.4083500">
<ele>0.000000</ele>
<time>1970-01-01T00:00:01.000Z</time>
</trkpt>
<trkpt lat="32.5102300" lon="35.4083300">
<ele>0.000000</ele>
<time>1970-01-01T00:00:01.000Z</time>
</trkpt>
<trkpt lat="32.5102300" lon="35.4084300">
<ele>0.000000</ele>
<time>1970-01-01T00:00:01.000Z</time>
</trkpt>
<trkpt lat="32.5107300" lon="35.4080100">
<ele>0.000000</ele>
<time>1970-01-01T00:00:01.000Z</time>
</trkpt>
<trkpt lat="32.5108300" lon="35.4080400">
<ele>0.000000</ele>
<time>1970-01-01T00:00:01.000Z</time>
</trkpt>
<trkpt lat="32.5108600" lon="35.4081100">
<ele>0.000000</ele>
<time>1970-01-01T00:00:01.000Z</time>
</trkpt>
<trkpt lat="32.5113100" lon="35.4085600">
<ele>0.000000</ele>
<time>1970-01-01T00:00:01.000Z</time>
</trkpt>
<trkpt lat="32.5114800" lon="35.4086200">
<ele>0.000000</ele>
<time>1970-01-01T00:00:01.000Z</time>
</trkpt>
<trkpt lat="32.5117100" lon="35.4082000">
<ele>0.000000</ele>
<time>1970-01-01T00:00:01.000Z</time>
</trkpt>
<trkpt lat="32.5117800" lon="35.4079400">
<ele>0.000000</ele>
<time>1970-01-01T00:00:01.000Z</time>
</trkpt>
<trkpt lat="32.5118900" lon="35.4066900">
<ele>0.000000</ele>
<time>1970-01-01T00:00:01.000Z</time>
</trkpt>
<trkpt lat="32.5119600" lon="35.4064700">
<ele>0.000000</ele>
<time>1970-01-01T00:00:01.000Z</time>
</trkpt>
<trkpt lat="32.5123500" lon="35.4056800">
<ele>0.000000</ele>
<time>1970-01-01T00:00:01.000Z</time>
</trkpt>
<trkpt lat="32.5126300" lon="35.4048600">
<ele>0.000000</ele>
<time>1970-01-01T00:00:01.000Z</time>
</trkpt>
<trkpt lat="32.5128000" lon="35.4040100">
<ele>0.000000</ele>
<time>1970-01-01T00:00:01.000Z</time>
</trkpt>
<trkpt lat="32.5130500" lon="35.4033500">
<ele>0.000000</ele>
<time>1970-01-01T00:00:01.000Z</time>
</trkpt>
<trkpt lat="32.5135400" lon="35.4025000">
<ele>0.000000</ele>
<time>1970-01-01T00:00:01.000Z</time>
</trkpt>
<trkpt lat="32.5137400" lon="35.4019800">
<ele>0.000000</ele>
<time>1970-01-01T00:00:01.000Z</time>
</trkpt>
<trkpt lat="32.5142200" lon="35.4003400">
<ele>0.000000</ele>
<time>1970-01-01T00:00:01.000Z</time>
</trkpt>
<trkpt lat="32.5143200" lon="35.3998400">
<ele>0.000000</ele>
<time>1970-01-01T00:00:01.000Z</time>
</trkpt>
<trkpt lat="32.5144200" lon="35.3976000">
<ele>0.000000</ele>
<time>1970-01-01T00:00:01.000Z</time>
</trkpt>
<trkpt lat="32.5139700" lon="35.3976100">
<ele>0.000000</ele>
<time>1970-01-01T00:00:01.000Z</time>
</trkpt>
<trkpt lat="32.5135600" lon="35.3977600">
<ele>0.000000</ele>
<time>1970-01-01T00:00:01.000Z</time>
</trkpt>
<trkpt lat="32.5131500" lon="35.3977300">
<ele>0.000000</ele>
<time>1970-01-01T00:00:01.000Z</time>
</trkpt>
<trkpt lat="32.5122500" lon="35.3972000">
<ele>0.000000</ele>
<time>1970-01-01T00:00:01.000Z</time>
</trkpt>
<trkpt lat="32.5118600" lon="35.3971300">
<ele>0.000000</ele>
<time>1970-01-01T00:00:01.000Z</time>
</trkpt>
<trkpt lat="32.5115100" lon="35.3966700">
<ele>0.000000</ele>
<time>1970-01-01T00:00:01.000Z</time>
</trkpt>
<trkpt lat="32.5108600" lon="35.3963000">
<ele>0.000000</ele>
<time>1970-01-01T00:00:01.000Z</time>
</trkpt>
<trkpt lat="32.5107700" lon="35.3959800">
<ele>0.000000</ele>
<time>1970-01-01T00:00:01.000Z</time>
</trkpt>
<trkpt lat="32.5108800" lon="35.3955100">
<ele>0.000000</ele>
<time>1970-01-01T00:00:01.000Z</time>
</trkpt>
<trkpt lat="32.5107900" lon="35.3952500">
<ele>0.000000</ele>
<time>1970-01-01T00:00:01.000Z</time>
</trkpt>
<trkpt lat="32.5101400" lon="35.3945900">
<ele>0.000000</ele>
<time>1970-01-01T00:00:01.000Z</time>
</trkpt>
<trkpt lat="32.5098300" lon="35.3941100">
<ele>0.000000</ele>
<time>1970-01-01T00:00:01.000Z</time>
</trkpt>
<trkpt lat="32.5095900" lon="35.3934400">
<ele>0.000000</ele>
<time>1970-01-01T00:00:01.000Z</time>
</trkpt>
<trkpt lat="32.5094600" lon="35.3927000">
<ele>0.000000</ele>
<time>1970-01-01T00:00:01.000Z</time>
</trkpt>
<trkpt lat="32.5094600" lon="35.3925100">
<ele>0.000000</ele>
<time>1970-01-01T00:00:01.000Z</time>
</trkpt>
<trkpt lat="32.5095400" lon="35.3921200">
<ele>0.000000</ele>
<time>1970-01-01T00:00:01.000Z</time>
</trkpt>
<trkpt lat="32.5095400" lon="35.3914800">
<ele>0.000000</ele>
<time>1970-01-01T00:00:01.000Z</time>
</trkpt>
<trkpt lat="32.5093900" lon="35.3908800">
<ele>0.000000</ele>
<time>1970-01-01T00:00:01.000Z</time>
</trkpt>
<trkpt lat="32.5093800" lon="35.3899900">
<ele>0.000000</ele>
<time>1970-01-01T00:00:01.000Z</time>
</trkpt>
<trkpt lat="32.5097000" lon="35.3886800">
<ele>0.000000</ele>
<time>1970-01-01T00:00:01.000Z</time>
</trkpt>
<trkpt lat="32.5097000" lon="35.3884600">
<ele>0.000000</ele>
<time>1970-01-01T00:00:01.000Z</time>
</trkpt>
<trkpt lat="32.5096800" lon="35.3882600">
<ele>0.000000</ele>
<time>1970-01-01T00:00:01.000Z</time>
</trkpt>
<trkpt lat="32.5094600" lon="35.3878800">
<ele>0.000000</ele>
<time>1970-01-01T00:00:01.000Z</time>
</trkpt>
<trkpt lat="32.5092700" lon="35.3876600">
<ele>0.000000</ele>
<time>1970-01-01T00:00:01.000Z</time>
</trkpt>
<trkpt lat="32.5091300" lon="35.3871600">
<ele>0.000000</ele>
<time>1970-01-01T00:00:01.000Z</time>
</trkpt>
<trkpt lat="32.5093100" lon="35.3857300">
<ele>0.000000</ele>
<time>1970-01-01T00:00:01.000Z</time>
</trkpt>
<trkpt lat="32.5095800" lon="35.3848900">
<ele>0.000000</ele>
<time>1970-01-01T00:00:01.000Z</time>
</trkpt>
<trkpt lat="32.5096700" lon="35.3842900">
<ele>0.000000</ele>
<time>1970-01-01T00:00:01.000Z</time>
</trkpt>
<trkpt lat="32.5101700" lon="35.3823000">
<ele>0.000000</ele>
<time>1970-01-01T00:00:01.000Z</time>
</trkpt>
<trkpt lat="32.5102100" lon="35.3817600">
<ele>0.000000</ele>
<time>1970-01-01T00:00:01.000Z</time>
</trkpt>
<trkpt lat="32.5104400" lon="35.3811000">
<ele>0.000000</ele>
<time>1970-01-01T00:00:01.000Z</time>
</trkpt>
<trkpt lat="32.5107100" lon="35.3809100">
<ele>0.000000</ele>
<time>1970-01-01T00:00:01.000Z</time>
</trkpt>
<trkpt lat="32.5109000" lon="35.3805400">
<ele>0.000000</ele>
<time>1970-01-01T00:00:01.000Z</time>
</trkpt>
<trkpt lat="32.5113700" lon="35.3799300">
<ele>0.000000</ele>
<time>1970-01-01T00:00:01.000Z</time>
</trkpt>
<trkpt lat="32.5117600" lon="35.3791800">
<ele>0.000000</ele>
<time>1970-01-01T00:00:01.000Z</time>
</trkpt>
<trkpt lat="32.5120500" lon="35.3782800">
<ele>0.000000</ele>
<time>1970-01-01T00:00:01.000Z</time>
</trkpt>
<trkpt lat="32.5124300" lon="35.3775900">
<ele>0.000000</ele>
<time>1970-01-01T00:00:01.000Z</time>
</trkpt>
<trkpt lat="32.5129200" lon="35.3775100">
<ele>0.000000</ele>
<time>1970-01-01T00:00:01.000Z</time>
</trkpt>
<trkpt lat="32.5134700" lon="35.3776100">
<ele>0.000000</ele>
<time>1970-01-01T00:00:01.000Z</time>
</trkpt>
<trkpt lat="32.5137300" lon="35.3779700">
<ele>0.000000</ele>
<time>1970-01-01T00:00:01.000Z</time>
</trkpt>
<trkpt lat="32.5137500" lon="35.3781200">
<ele>0.000000</ele>
<time>1970-01-01T00:00:01.000Z</time>
</trkpt>
<trkpt lat="32.5140200" lon="35.3789200">
<ele>0.000000</ele>
<time>1970-01-01T00:00:01.000Z</time>
</trkpt>
<trkpt lat="32.5144300" lon="35.3797500">
<ele>0.000000</ele>
<time>1970-01-01T00:00:01.000Z</time>
</trkpt>
<trkpt lat="32.5145700" lon="35.3801900">
<ele>0.000000</ele>
<time>1970-01-01T00:00:01.000Z</time>
</trkpt>
<trkpt lat="32.5148200" lon="35.3804000">
<ele>0.000000</ele>
<time>1970-01-01T00:00:01.000Z</time>
</trkpt>
<trkpt lat="32.5148600" lon="35.3805900">
<ele>0.000000</ele>
<time>1970-01-01T00:00:01.000Z</time>
</trkpt>
<trkpt lat="32.5151800" lon="35.3813800">
<ele>0.000000</ele>
<time>1970-01-01T00:00:01.000Z</time>
</trkpt>
<trkpt lat="32.5152400" lon="35.3816700">
<ele>0.000000</ele>
<time>1970-01-01T00:00:01.000Z</time>
</trkpt>
<trkpt lat="32.5153500" lon="35.3819300">
<ele>0.000000</ele>
<time>1970-01-01T00:00:01.000Z</time>
</trkpt>
<trkpt lat="32.5153700" lon="35.3821800">
<ele>0.000000</ele>
<time>1970-01-01T00:00:01.000Z</time>
</trkpt>
<trkpt lat="32.5153700" lon="35.3829400">
<ele>0.000000</ele>
<time>1970-01-01T00:00:01.000Z</time>
</trkpt>
<trkpt lat="32.5153000" lon="35.3837100">
<ele>0.000000</ele>
<time>1970-01-01T00:00:01.000Z</time>
</trkpt>
<trkpt lat="32.5151900" lon="35.3864100">
<ele>0.000000</ele>
<time>1970-01-01T00:00:01.000Z</time>
</trkpt>
<trkpt lat="32.5152600" lon="35.3864300">
<ele>0.000000</ele>
<time>1970-01-01T00:00:01.000Z</time>
</trkpt>
<trkpt lat="32.5156400" lon="35.3862500">
<ele>0.000000</ele>
<time>1970-01-01T00:00:01.000Z</time>
</trkpt>
<trkpt lat="32.5159700" lon="35.3860000">
<ele>0.000000</ele>
<time>1970-01-01T00:00:01.000Z</time>
</trkpt>
<trkpt lat="32.5161900" lon="35.3858800">
<ele>0.000000</ele>
<time>1970-01-01T00:00:01.000Z</time>
</trkpt>
<trkpt lat="32.5163300" lon="35.3857100">
<ele>0.000000</ele>
<time>1970-01-01T00:00:01.000Z</time>
</trkpt>
<trkpt lat="32.5165400" lon="35.3856500">
<ele>0.000000</ele>
<time>1970-01-01T00:00:01.000Z</time>
</trkpt>
<trkpt lat="32.5166500" lon="35.3855400">
<ele>0.000000</ele>
<time>1970-01-01T00:00:01.000Z</time>
</trkpt>
<trkpt lat="32.5172100" lon="35.3843800">
<ele>0.000000</ele>
<time>1970-01-01T00:00:01.000Z</time>
</trkpt>
<trkpt lat="32.5171700" lon="35.3843100">
<ele>0.000000</ele>
<time>1970-01-01T00:00:01.000Z</time>
</trkpt>
<trkpt lat="32.5173200" lon="35.3835400">
<ele>0.000000</ele>
<time>1970-01-01T00:00:01.000Z</time>
</trkpt>
<trkpt lat="32.5175800" lon="35.3825800">
<ele>0.000000</ele>
<time>1970-01-01T00:00:01.000Z</time>
</trkpt>
<trkpt lat="32.5178200" lon="35.3820600">
<ele>0.000000</ele>
<time>1970-01-01T00:00:01.000Z</time>
</trkpt>
<trkpt lat="32.5180700" lon="35.3818700">
<ele>0.000000</ele>
<time>1970-01-01T00:00:01.000Z</time>
</trkpt>
<trkpt lat="32.5184300" lon="35.3814500">
<ele>0.000000</ele>
<time>1970-01-01T00:00:01.000Z</time>
</trkpt>
<trkpt lat="32.5186400" lon="35.3810000">
<ele>0.000000</ele>
<time>1970-01-01T00:00:01.000Z</time>
</trkpt>
<trkpt lat="32.5190400" lon="35.3805000">
<ele>0.000000</ele>
<time>1970-01-01T00:00:01.000Z</time>
</trkpt>
<trkpt lat="32.5192000" lon="35.3795900">
<ele>0.000000</ele>
<time>1970-01-01T00:00:01.000Z</time>
</trkpt>
<trkpt lat="32.5192400" lon="35.3785300">
<ele>0.000000</ele>
<time>1970-01-01T00:00:01.000Z</time>
</trkpt>
<trkpt lat="32.5198000" lon="35.3773000">
<ele>0.000000</ele>
<time>1970-01-01T00:00:01.000Z</time>
</trkpt>
<trkpt lat="32.5199000" lon="35.3761500">
<ele>0.000000</ele>
<time>1970-01-01T00:00:01.000Z</time>
</trkpt>
<trkpt lat="32.5199700" lon="35.3761400">
<ele>0.000000</ele>
<time>1970-01-01T00:00:01.000Z</time>
</trkpt>
<trkpt lat="32.5204600" lon="35.3752400">
<ele>0.000000</ele>
<time>1970-01-01T00:00:01.000Z</time>
</trkpt>
<trkpt lat="32.5207600" lon="35.3741300">
<ele>0.000000</ele>
<time>1970-01-01T00:00:01.000Z</time>
</trkpt>
<trkpt lat="32.5211500" lon="35.3730800">
<ele>0.000000</ele>
<time>1970-01-01T00:00:01.000Z</time>
</trkpt>
<trkpt lat="32.5217700" lon="35.3718400">
<ele>0.000000</ele>
<time>1970-01-01T00:00:01.000Z</time>
</trkpt>
<trkpt lat="32.5218100" lon="35.3713800">
<ele>0.000000</ele>
<time>1970-01-01T00:00:01.000Z</time>
</trkpt>
<trkpt lat="32.5218000" lon="35.3707200">
<ele>0.000000</ele>
<time>1970-01-01T00:00:01.000Z</time>
</trkpt>
<trkpt lat="32.5218900" lon="35.3705700">
<ele>0.000000</ele>
<time>1970-01-01T00:00:01.000Z</time>
</trkpt>
<trkpt lat="32.5225600" lon="35.3700200">
<ele>0.000000</ele>
<time>1970-01-01T00:00:01.000Z</time>
</trkpt>
<trkpt lat="32.5231700" lon="35.3693200">
<ele>0.000000</ele>
<time>1970-01-01T00:00:01.000Z</time>
</trkpt>
<trkpt lat="32.5233600" lon="35.3693400">
<ele>0.000000</ele>
<time>1970-01-01T00:00:01.000Z</time>
</trkpt>
<trkpt lat="32.5237200" lon="35.3692800">
<ele>0.000000</ele>
<time>1970-01-01T00:00:01.000Z</time>
</trkpt>
<trkpt lat="32.5240400" lon="35.3690500">
<ele>0.000000</ele>
<time>1970-01-01T00:00:01.000Z</time>
</trkpt>
<trkpt lat="32.5245300" lon="35.3690200">
<ele>0.000000</ele>
<time>1970-01-01T00:00:01.000Z</time>
</trkpt>
<trkpt lat="32.5249100" lon="35.3687300">
<ele>0.000000</ele>
<time>1970-01-01T00:00:01.000Z</time>
</trkpt>
<trkpt lat="32.5250500" lon="35.3684800">
<ele>0.000000</ele>
<time>1970-01-01T00:00:01.000Z</time>
</trkpt>
<trkpt lat="32.5250600" lon="35.3677500">
<ele>0.000000</ele>
<time>1970-01-01T00:00:01.000Z</time>
</trkpt>
<trkpt lat="32.5248700" lon="35.3658700">
<ele>0.000000</ele>
<time>1970-01-01T00:00:01.000Z</time>
</trkpt>
<trkpt lat="32.5250100" lon="35.3650000">
<ele>0.000000</ele>
<time>1970-01-01T00:00:01.000Z</time>
</trkpt>
<trkpt lat="32.5252900" lon="35.3640400">
<ele>0.000000</ele>
<time>1970-01-01T00:00:01.000Z</time>
</trkpt>
<trkpt lat="32.5253300" lon="35.3635600">
<ele>0.000000</ele>
<time>1970-01-01T00:00:01.000Z</time>
</trkpt>
<trkpt lat="32.5252100" lon="35.3630600">
<ele>0.000000</ele>
<time>1970-01-01T00:00:01.000Z</time>
</trkpt>
<trkpt lat="32.5245800" lon="35.3623500">
<ele>0.000000</ele>
<time>1970-01-01T00:00:01.000Z</time>
</trkpt>
<trkpt lat="32.5243700" lon="35.3619800">
<ele>0.000000</ele>
<time>1970-01-01T00:00:01.000Z</time>
</trkpt>
<trkpt lat="32.5243200" lon="35.3615600">
<ele>0.000000</ele>
<time>1970-01-01T00:00:01.000Z</time>
</trkpt>
<trkpt lat="32.5243000" lon="35.3606600">
<ele>0.000000</ele>
<time>1970-01-01T00:00:01.000Z</time>
</trkpt>
<trkpt lat="32.5243300" lon="35.3606900">
<ele>0.000000</ele>
<time>1970-01-01T00:00:01.000Z</time>
</trkpt>
<trkpt lat="32.5240100" lon="35.3593500">
<ele>0.000000</ele>
<time>1970-01-01T00:00:01.000Z</time>
</trkpt>
<trkpt lat="32.5223900" lon="35.3581000">
<ele>0.000000</ele>
<time>1970-01-01T00:00:01.000Z</time>
</trkpt>
<trkpt lat="32.5223600" lon="35.3579100">
<ele>0.000000</ele>
<time>1970-01-01T00:00:01.000Z</time>
</trkpt>
<trkpt lat="32.5222600" lon="35.3578400">
<ele>0.000000</ele>
<time>1970-01-01T00:00:01.000Z</time>
</trkpt>
<trkpt lat="32.5222700" lon="35.3576900">
<ele>0.000000</ele>
<time>1970-01-01T00:00:01.000Z</time>
</trkpt>
<trkpt lat="32.5222200" lon="35.3574200">
<ele>0.000000</ele>
<time>1970-01-01T00:00:01.000Z</time>
</trkpt>
<trkpt lat="32.5216300" lon="35.3563400">
<ele>0.000000</ele>
<time>1970-01-01T00:00:01.000Z</time>
</trkpt>
<trkpt lat="32.5215300" lon="35.3557800">
<ele>0.000000</ele>
<time>1970-01-01T00:00:01.000Z</time>
</trkpt>
<trkpt lat="32.5214900" lon="35.3550400">
<ele>0.000000</ele>
<time>1970-01-01T00:00:01.000Z</time>
</trkpt>
<trkpt lat="32.5215500" lon="35.3545600">
<ele>0.000000</ele>
<time>1970-01-01T00:00:01.000Z</time>
</trkpt>
<trkpt lat="32.5214800" lon="35.3542500">
<ele>0.000000</ele>
<time>1970-01-01T00:00:01.000Z</time>
</trkpt>
<trkpt lat="32.5214800" lon="35.3527600">
<ele>0.000000</ele>
<time>1970-01-01T00:00:01.000Z</time>
</trkpt>
<trkpt lat="32.5213500" lon="35.3515600">
<ele>0.000000</ele>
<time>1970-01-01T00:00:01.000Z</time>
</trkpt>
<trkpt lat="32.5213100" lon="35.3505400">
<ele>0.000000</ele>
<time>1970-01-01T00:00:01.000Z</time>
</trkpt>
<trkpt lat="32.5213600" lon="35.3499500">
<ele>0.000000</ele>
<time>1970-01-01T00:00:01.000Z</time>
</trkpt>
<trkpt lat="32.5213500" lon="35.3496800">
<ele>0.000000</ele>
<time>1970-01-01T00:00:01.000Z</time>
</trkpt>
<trkpt lat="32.5212800" lon="35.3494000">
<ele>0.000000</ele>
<time>1970-01-01T00:00:01.000Z</time>
</trkpt>
<trkpt lat="32.5213100" lon="35.3489100">
<ele>0.000000</ele>
<time>1970-01-01T00:00:01.000Z</time>
</trkpt>
<trkpt lat="32.5211700" lon="35.3478400">
<ele>0.000000</ele>
<time>1970-01-01T00:00:01.000Z</time>
</trkpt>
<trkpt lat="32.5212300" lon="35.3471000">
<ele>0.000000</ele>
<time>1970-01-01T00:00:01.000Z</time>
</trkpt>
<trkpt lat="32.5211300" lon="35.3462300">
<ele>0.000000</ele>
<time>1970-01-01T00:00:01.000Z</time>
</trkpt>
<trkpt lat="32.5211400" lon="35.3453200">
<ele>0.000000</ele>
<time>1970-01-01T00:00:01.000Z</time>
</trkpt>
<trkpt lat="32.5212500" lon="35.3450000">
<ele>0.000000</ele>
<time>1970-01-01T00:00:01.000Z</time>
</trkpt>
<trkpt lat="32.5212300" lon="35.3444900">
<ele>0.000000</ele>
<time>1970-01-01T00:00:01.000Z</time>
</trkpt>
<trkpt lat="32.5212900" lon="35.3432900">
<ele>0.000000</ele>
<time>1970-01-01T00:00:01.000Z</time>
</trkpt>
<trkpt lat="32.5213900" lon="35.3429100">
<ele>0.000000</ele>
<time>1970-01-01T00:00:01.000Z</time>
</trkpt>
<trkpt lat="32.5214800" lon="35.3428200">
<ele>0.000000</ele>
<time>1970-01-01T00:00:01.000Z</time>
</trkpt>
<trkpt lat="32.5215300" lon="35.3426600">
<ele>0.000000</ele>
<time>1970-01-01T00:00:01.000Z</time>
</trkpt>
<trkpt lat="32.5215500" lon="35.3424200">
<ele>0.000000</ele>
<time>1970-01-01T00:00:01.000Z</time>
</trkpt>
<trkpt lat="32.5216600" lon="35.3419700">
<ele>0.000000</ele>
<time>1970-01-01T00:00:01.000Z</time>
</trkpt>
<trkpt lat="32.5218800" lon="35.3417600">
<ele>0.000000</ele>
<time>1970-01-01T00:00:01.000Z</time>
</trkpt>
<trkpt lat="32.5219300" lon="35.3411000">
<ele>0.000000</ele>
<time>1970-01-01T00:00:01.000Z</time>
</trkpt>
<trkpt lat="32.5217400" lon="35.3409500">
<ele>0.000000</ele>
<time>1970-01-01T00:00:01.000Z</time>
</trkpt>
<trkpt lat="32.5219200" lon="35.3393500">
<ele>0.000000</ele>
<time>1970-01-01T00:00:01.000Z</time>
</trkpt>
<trkpt lat="32.5226200" lon="35.3378200">
<ele>0.000000</ele>
<time>1970-01-01T00:00:01.000Z</time>
</trkpt>
<trkpt lat="32.5225300" lon="35.3376800">
<ele>0.000000</ele>
<time>1970-01-01T00:00:01.000Z</time>
</trkpt>
<trkpt lat="32.5221000" lon="35.3374100">
<ele>0.000000</ele>
<time>1970-01-01T00:00:01.000Z</time>
</trkpt>
<trkpt lat="32.5220500" lon="35.3372000">
<ele>0.000000</ele>
<time>1970-01-01T00:00:01.000Z</time>
</trkpt>
<trkpt lat="32.5215600" lon="35.3369800">
<ele>0.000000</ele>
<time>1970-01-01T00:00:01.000Z</time>
</trkpt>
<trkpt lat="32.5216100" lon="35.3368500">
<ele>0.000000</ele>
<time>1970-01-01T00:00:01.000Z</time>
</trkpt>
<trkpt lat="32.5220200" lon="35.3365000">
<ele>0.000000</ele>
<time>1970-01-01T00:00:01.000Z</time>
</trkpt>
<trkpt lat="32.5224000" lon="35.3363300">
<ele>0.000000</ele>
<time>1970-01-01T00:00:01.000Z</time>
</trkpt>
<trkpt lat="32.5230800" lon="35.3362200">
<ele>0.000000</ele>
<time>1970-01-01T00:00:01.000Z</time>
</trkpt>
<trkpt lat="32.5235500" lon="35.3362200">
<ele>0.000000</ele>
<time>1970-01-01T00:00:01.000Z</time>
</trkpt>
<trkpt lat="32.5238200" lon="35.3361800">
<ele>0.000000</ele>
<time>1970-01-01T00:00:01.000Z</time>
</trkpt>
<trkpt lat="32.5238800" lon="35.3362000">
<ele>0.000000</ele>
<time>1970-01-01T00:00:01.000Z</time>
</trkpt>
<trkpt lat="32.5239700" lon="35.3352700">
<ele>0.000000</ele>
<time>1970-01-01T00:00:01.000Z</time>
</trkpt>
<trkpt lat="32.5239600" lon="35.3345700">
<ele>0.000000</ele>
<time>1970-01-01T00:00:01.000Z</time>
</trkpt>
<trkpt lat="32.5238600" lon="35.3340700">
<ele>0.000000</ele>
<time>1970-01-01T00:00:01.000Z</time>
</trkpt>
<trkpt lat="32.5237300" lon="35.3338200">
<ele>0.000000</ele>
<time>1970-01-01T00:00:01.000Z</time>
</trkpt>
<trkpt lat="32.5230800" lon="35.3331900">
<ele>0.000000</ele>
<time>1970-01-01T00:00:01.000Z</time>
</trkpt>
<trkpt lat="32.5230500" lon="35.3325900">
<ele>0.000000</ele>
<time>1970-01-01T00:00:01.000Z</time>
</trkpt>
<trkpt lat="32.5230900" lon="35.3322700">
<ele>0.000000</ele>
<time>1970-01-01T00:00:01.000Z</time>
</trkpt>
<trkpt lat="32.5232100" lon="35.3320500">
<ele>0.000000</ele>
<time>1970-01-01T00:00:01.000Z</time>
</trkpt>
<trkpt lat="32.5237000" lon="35.3315500">
<ele>0.000000</ele>
<time>1970-01-01T00:00:01.000Z</time>
</trkpt>
<trkpt lat="32.5239100" lon="35.3310600">
<ele>0.000000</ele>
<time>1970-01-01T00:00:01.000Z</time>
</trkpt>
<trkpt lat="32.5239880" lon="35.3302500">
<ele>0.000000</ele>
<time>1970-01-01T00:00:01.000Z</time>
</trkpt>
<trkpt lat="32.5242140" lon="35.3300570">
<ele>0.000000</ele>
<time>1970-01-01T00:00:01.000Z</time>
</trkpt>
<trkpt lat="32.5245530" lon="35.3298480">
<ele>0.000000</ele>
<time>1970-01-01T00:00:01.000Z</time>
</trkpt>
<trkpt lat="32.5246530" lon="35.3298160">
<ele>0.000000</ele>
<time>1970-01-01T00:00:01.000Z</time>
</trkpt>
<trkpt lat="32.5248250" lon="35.3299770">
<ele>0.000000</ele>
<time>1970-01-01T00:00:01.000Z</time>
</trkpt>
<trkpt lat="32.5249330" lon="35.3300460">
<ele>0.000000</ele>
<time>1970-01-01T00:00:01.000Z</time>
</trkpt>
<trkpt lat="32.5250460" lon="35.3300460">
<ele>0.000000</ele>
<time>1970-01-01T00:00:01.000Z</time>
</trkpt>
<trkpt lat="32.5251780" lon="35.3301000">
<ele>0.000000</ele>
<time>1970-01-01T00:00:01.000Z</time>
</trkpt>
<trkpt lat="32.5253310" lon="35.3300410">
<ele>0.000000</ele>
<time>1970-01-01T00:00:01.000Z</time>
</trkpt>
<trkpt lat="32.5254400" lon="35.3300300">
<ele>0.000000</ele>
<time>1970-01-01T00:00:01.000Z</time>
</trkpt>
<trkpt lat="32.5254850" lon="35.3299280">
<ele>0.000000</ele>
<time>1970-01-01T00:00:01.000Z</time>
</trkpt>
<trkpt lat="32.5256210" lon="35.3297300">
<ele>0.000000</ele>
<time>1970-01-01T00:00:01.000Z</time>
</trkpt>
<trkpt lat="32.5256890" lon="35.3296600">
<ele>0.000000</ele>
<time>1970-01-01T00:00:01.000Z</time>
</trkpt>
<trkpt lat="32.5257200" lon="35.3295740">
<ele>0.000000</ele>
<time>1970-01-01T00:00:01.000Z</time>
</trkpt>
<trkpt lat="32.5257880" lon="35.3295420">
<ele>0.000000</ele>
<time>1970-01-01T00:00:01.000Z</time>
</trkpt>
<trkpt lat="32.5258700" lon="35.3295500">
<ele>0.000000</ele>
<time>1970-01-01T00:00:01.000Z</time>
</trkpt>
<trkpt lat="32.5259600" lon="35.3295000">
<ele>0.000000</ele>
<time>1970-01-01T00:00:01.000Z</time>
</trkpt>
<trkpt lat="32.5260900" lon="35.3295000">
<ele>0.000000</ele>
<time>1970-01-01T00:00:01.000Z</time>
</trkpt>
<trkpt lat="32.5265000" lon="35.3298300">
<ele>0.000000</ele>
<time>1970-01-01T00:00:01.000Z</time>
</trkpt>
<trkpt lat="32.5266700" lon="35.3298600">
<ele>0.000000</ele>
<time>1970-01-01T00:00:01.000Z</time>
</trkpt>
<trkpt lat="32.5274700" lon="35.3298600">
<ele>0.000000</ele>
<time>1970-01-01T00:00:01.000Z</time>
</trkpt>
<trkpt lat="32.5276100" lon="35.3298200">
<ele>0.000000</ele>
<time>1970-01-01T00:00:01.000Z</time>
</trkpt>
<trkpt lat="32.5279000" lon="35.3292500">
<ele>0.000000</ele>
<time>1970-01-01T00:00:01.000Z</time>
</trkpt>
<trkpt lat="32.5280600" lon="35.3286600">
<ele>0.000000</ele>
<time>1970-01-01T00:00:01.000Z</time>
</trkpt>
<trkpt lat="32.5281500" lon="35.3284800">
<ele>0.000000</ele>
<time>1970-01-01T00:00:01.000Z</time>
</trkpt>
<trkpt lat="32.5286600" lon="35.3276400">
<ele>0.000000</ele>
<time>1970-01-01T00:00:01.000Z</time>
</trkpt>
<trkpt lat="32.5290000" lon="35.3273100">
<ele>0.000000</ele>
<time>1970-01-01T00:00:01.000Z</time>
</trkpt>
<trkpt lat="32.5292100" lon="35.3269000">
<ele>0.000000</ele>
<time>1970-01-01T00:00:01.000Z</time>
</trkpt>
<trkpt lat="32.5294700" lon="35.3265600">
<ele>0.000000</ele>
<time>1970-01-01T00:00:01.000Z</time>
</trkpt>
<trkpt lat="32.5295700" lon="35.3265200">
<ele>0.000000</ele>
<time>1970-01-01T00:00:01.000Z</time>
</trkpt>
<trkpt lat="32.5297500" lon="35.3265100">
<ele>0.000000</ele>
<time>1970-01-01T00:00:01.000Z</time>
</trkpt>
<trkpt lat="32.5306700" lon="35.3267800">
<ele>0.000000</ele>
<time>1970-01-01T00:00:01.000Z</time>
</trkpt>
<trkpt lat="32.5308300" lon="35.3267500">
<ele>0.000000</ele>
<time>1970-01-01T00:00:01.000Z</time>
</trkpt>
<trkpt lat="32.5309600" lon="35.3265600">
<ele>0.000000</ele>
<time>1970-01-01T00:00:01.000Z</time>
</trkpt>
<trkpt lat="32.5310500" lon="35.3265100">
<ele>0.000000</ele>
<time>1970-01-01T00:00:01.000Z</time>
</trkpt>
<trkpt lat="32.5307300" lon="35.3275100">
<ele>0.000000</ele>
<time>1970-01-01T00:00:01.000Z</time>
</trkpt>
<trkpt lat="32.5304500" lon="35.3281300">
<ele>0.000000</ele>
<time>1970-01-01T00:00:01.000Z</time>
</trkpt>
<trkpt lat="32.5316100" lon="35.3293500">
<ele>0.000000</ele>
<time>1970-01-01T00:00:01.000Z</time>
</trkpt>
<trkpt lat="32.5318100" lon="35.3296700">
<ele>0.000000</ele>
<time>1970-01-01T00:00:01.000Z</time>
</trkpt>
<trkpt lat="32.5319800" lon="35.3300700">
<ele>0.000000</ele>
<time>1970-01-01T00:00:01.000Z</time>
</trkpt>
<trkpt lat="32.5320700" lon="35.3304500">
<ele>0.000000</ele>
<time>1970-01-01T00:00:01.000Z</time>
</trkpt>
<trkpt lat="32.5320700" lon="35.3315800">
<ele>0.000000</ele>
<time>1970-01-01T00:00:01.000Z</time>
</trkpt>
<trkpt lat="32.5320000" lon="35.3319700">
<ele>0.000000</ele>
<time>1970-01-01T00:00:01.000Z</time>
</trkpt>
<trkpt lat="32.5315800" lon="35.3329500">
<ele>0.000000</ele>
<time>1970-01-01T00:00:01.000Z</time>
</trkpt>
<trkpt lat="32.5314300" lon="35.3334200">
<ele>0.000000</ele>
<time>1970-01-01T00:00:01.000Z</time>
</trkpt>
<trkpt lat="32.5313500" lon="35.3341500">
<ele>0.000000</ele>
<time>1970-01-01T00:00:01.000Z</time>
</trkpt>
<trkpt lat="32.5313600" lon="35.3348200">
<ele>0.000000</ele>
<time>1970-01-01T00:00:01.000Z</time>
</trkpt>
<trkpt lat="32.5314300" lon="35.3353300">
<ele>0.000000</ele>
<time>1970-01-01T00:00:01.000Z</time>
</trkpt>
<trkpt lat="32.5316800" lon="35.3359800">
<ele>0.000000</ele>
<time>1970-01-01T00:00:01.000Z</time>
</trkpt>
<trkpt lat="32.5317600" lon="35.3361300">
<ele>0.000000</ele>
<time>1970-01-01T00:00:01.000Z</time>
</trkpt>
<trkpt lat="32.5320400" lon="35.3364700">
<ele>0.000000</ele>
<time>1970-01-01T00:00:01.000Z</time>
</trkpt>
<trkpt lat="32.5323400" lon="35.3366900">
<ele>0.000000</ele>
<time>1970-01-01T00:00:01.000Z</time>
</trkpt>
<trkpt lat="32.5325100" lon="35.3367600">
<ele>0.000000</ele>
<time>1970-01-01T00:00:01.000Z</time>
</trkpt>
<trkpt lat="32.5328300" lon="35.3368000">
<ele>0.000000</ele>
<time>1970-01-01T00:00:01.000Z</time>
</trkpt>
<trkpt lat="32.5331600" lon="35.3368100">
<ele>0.000000</ele>
<time>1970-01-01T00:00:01.000Z</time>
</trkpt>
<trkpt lat="32.5334800" lon="35.3367700">
<ele>0.000000</ele>
<time>1970-01-01T00:00:01.000Z</time>
</trkpt>
<trkpt lat="32.5336500" lon="35.3367100">
<ele>0.000000</ele>
<time>1970-01-01T00:00:01.000Z</time>
</trkpt>
<trkpt lat="32.5343500" lon="35.3362900">
<ele>0.000000</ele>
<time>1970-01-01T00:00:01.000Z</time>
</trkpt>
<trkpt lat="32.5349100" lon="35.3360200">
<ele>0.000000</ele>
<time>1970-01-01T00:00:01.000Z</time>
</trkpt>
<trkpt lat="32.5353600" lon="35.3359100">
<ele>0.000000</ele>
<time>1970-01-01T00:00:01.000Z</time>
</trkpt>
<trkpt lat="32.5362100" lon="35.3358900">
<ele>0.000000</ele>
<time>1970-01-01T00:00:01.000Z</time>
</trkpt>
<trkpt lat="32.5366100" lon="35.3359100">
<ele>0.000000</ele>
<time>1970-01-01T00:00:01.000Z</time>
</trkpt>
<trkpt lat="32.5368600" lon="35.3359600">
<ele>0.000000</ele>
<time>1970-01-01T00:00:01.000Z</time>
</trkpt>
<trkpt lat="32.5374600" lon="35.3361700">
<ele>0.000000</ele>
<time>1970-01-01T00:00:01.000Z</time>
</trkpt>
<trkpt lat="32.5387400" lon="35.3369700">
<ele>0.000000</ele>
<time>1970-01-01T00:00:01.000Z</time>
</trkpt>
<trkpt lat="32.5391700" lon="35.3370500">
<ele>0.000000</ele>
<time>1970-01-01T00:00:01.000Z</time>
</trkpt>
<trkpt lat="32.5396300" lon="35.3370300">
<ele>0.000000</ele>
<time>1970-01-01T00:00:01.000Z</time>
</trkpt>
<trkpt lat="32.5399800" lon="35.3369100">
<ele>0.000000</ele>
<time>1970-01-01T00:00:01.000Z</time>
</trkpt>
<trkpt lat="32.5402000" lon="35.3367600">
<ele>0.000000</ele>
<time>1970-01-01T00:00:01.000Z</time>
</trkpt>
<trkpt lat="32.5406500" lon="35.3362700">
<ele>0.000000</ele>
<time>1970-01-01T00:00:01.000Z</time>
</trkpt>
<trkpt lat="32.5408000" lon="35.3360400">
<ele>0.000000</ele>
<time>1970-01-01T00:00:01.000Z</time>
</trkpt>
<trkpt lat="32.5410900" lon="35.3358100">
<ele>0.000000</ele>
<time>1970-01-01T00:00:01.000Z</time>
</trkpt>
<trkpt lat="32.5414000" lon="35.3357700">
<ele>0.000000</ele>
<time>1970-01-01T00:00:01.000Z</time>
</trkpt>
<trkpt lat="32.5416700" lon="35.3357800">
<ele>0.000000</ele>
<time>1970-01-01T00:00:01.000Z</time>
</trkpt>
<trkpt lat="32.5418200" lon="35.3358100">
<ele>0.000000</ele>
<time>1970-01-01T00:00:01.000Z</time>
</trkpt>
<trkpt lat="32.5420200" lon="35.3359700">
<ele>0.000000</ele>
<time>1970-01-01T00:00:01.000Z</time>
</trkpt>
<trkpt lat="32.5422100" lon="35.3362600">
<ele>0.000000</ele>
<time>1970-01-01T00:00:01.000Z</time>
</trkpt>
<trkpt lat="32.5429600" lon="35.3378100">
<ele>0.000000</ele>
<time>1970-01-01T00:00:01.000Z</time>
</trkpt>
<trkpt lat="32.5433900" lon="35.3385100">
<ele>0.000000</ele>
<time>1970-01-01T00:00:01.000Z</time>
</trkpt>
<trkpt lat="32.5437900" lon="35.3389300">
<ele>0.000000</ele>
<time>1970-01-01T00:00:01.000Z</time>
</trkpt>
<trkpt lat="32.5449700" lon="35.3397700">
<ele>0.000000</ele>
<time>1970-01-01T00:00:01.000Z</time>
</trkpt>
<trkpt lat="32.5449600" lon="35.3398000">
<ele>0.000000</ele>
<time>1970-01-01T00:00:01.000Z</time>
</trkpt>
<trkpt lat="32.5455100" lon="35.3402100">
<ele>0.000000</ele>
<time>1970-01-01T00:00:01.000Z</time>
</trkpt>
<trkpt lat="32.5452600" lon="35.3412000">
<ele>0.000000</ele>
<time>1970-01-01T00:00:01.000Z</time>
</trkpt>
<trkpt lat="32.5452500" lon="35.3419400">
<ele>0.000000</ele>
<time>1970-01-01T00:00:01.000Z</time>
</trkpt>
<trkpt lat="32.5453500" lon="35.3427200">
<ele>0.000000</ele>
<time>1970-01-01T00:00:01.000Z</time>
</trkpt>
<trkpt lat="32.5457100" lon="35.3441600">
<ele>0.000000</ele>
<time>1970-01-01T00:00:01.000Z</time>
</trkpt>
<trkpt lat="32.5457600" lon="35.3446500">
<ele>0.000000</ele>
<time>1970-01-01T00:00:01.000Z</time>
</trkpt>
<trkpt lat="32.5457500" lon="35.3450300">
<ele>0.000000</ele>
<time>1970-01-01T00:00:01.000Z</time>
</trkpt>
<trkpt lat="32.5456800" lon="35.3454600">
<ele>0.000000</ele>
<time>1970-01-01T00:00:01.000Z</time>
</trkpt>
<trkpt lat="32.5455500" lon="35.3459200">
<ele>0.000000</ele>
<time>1970-01-01T00:00:01.000Z</time>
</trkpt>
<trkpt lat="32.5448900" lon="35.3476000">
<ele>0.000000</ele>
<time>1970-01-01T00:00:01.000Z</time>
</trkpt>
<trkpt lat="32.5453200" lon="35.3480200">
<ele>0.000000</ele>
<time>1970-01-01T00:00:01.000Z</time>
</trkpt>
<trkpt lat="32.5451000" lon="35.3482400">
<ele>0.000000</ele>
<time>1970-01-01T00:00:01.000Z</time>
</trkpt>
<trkpt lat="32.5448900" lon="35.3485300">
<ele>0.000000</ele>
<time>1970-01-01T00:00:01.000Z</time>
</trkpt>
<trkpt lat="32.5445800" lon="35.3487800">
<ele>0.000000</ele>
<time>1970-01-01T00:00:01.000Z</time>
</trkpt>
<trkpt lat="32.5443600" lon="35.3491900">
<ele>0.000000</ele>
<time>1970-01-01T00:00:01.000Z</time>
</trkpt>
<trkpt lat="32.5442300" lon="35.3496600">
<ele>0.000000</ele>
<time>1970-01-01T00:00:01.000Z</time>
</trkpt>
<trkpt lat="32.5442400" lon="35.3496400">
<ele>0.000000</ele>
<time>1970-01-01T00:00:01.000Z</time>
</trkpt>
</trkseg>
</trk>
</gpx>
